                ,  0.290,  0.386,  0.483,  0.580,  0.676,  0.773,  0.869,  0.966,  1.063,  1.159,  1.256,  1.352,  1.449,  1.545,  1.642,  1.739,  1.835,  1.932,  2.028,  2.125,  2.222,  2.318,  2.415,  2.511,  2.608,  2.705,  2.801,  2.898,  2.994,  3.091,  3.188,  3.284,  3.381,  3.477,  3.574,  3.671,  3.767,  3.864,  3.960,  4.057,  4.153,  4.250,  4.347,  4.443,  4.540,  4.636,  4.733,  4.830,  4.926,  5.023,  5.119,  5.216,  5.313,  5.409,  5.506,  5.602,  5.699,  5.796
2000/11/28 00:00,  999.0,    7.9,    8.7,    9.1,  999.0,  999.0,  999.0,  999.0,  999.0,  999.0,  999.0,    7.5,  999.0,  999.0,  999.0,  999.0,  999.0,  999.0,  999.0,    3.3,  999.0,  999.0,  999.0,    0.9,    0.3,  999.0,  999.0,  999.0,    1.5,  999.0,  999.0,    0.8,  999.0,  999.0,  999.0,  999.0,  999.0,  999.0,  999.0,    0.8,  999.0,  999.0,    0.3,  999.0,    0.4,   -0.1,  999.0,    1.1,  999.0,  999.0,  999.0,    1.2,  999.0,    1.2,  999.0,  999.0,  999.0,    1.0
2000/11/28 00:10,  999.0,  999.0,    8.7,    3.9,    1.2,  999.0,   12.5,   13.8,  999.0,  999.0,  999.0,  999.0,  999.0,  999.0,  999.0,  999.0,  999.0,  999.0,  999.0,  999.0,  999.0,  999.0,  999.0,  999.0,  999.0,  999.0,  999.0,  999.0,  999.0,  999.0,  999.0,  999.0,  999.0,  999.0,  999.0,  999.0,  999.0,    0.7,    0.7,    0.8,  999.0,    0.3,  999.0,    0.9,  999.0,  999.0,  999.0,    0.3,  999.0,  999.0,    0.8,  999.0,    0.7,  999.0,  999.0,    1.3,  999.0,    0.6
2000/11/28 00:20,  999.0,    7.0,   11.8,   13.4,  999.0,    3.2,   23.4,    7.1,  999.0,  999.0,  999.0,  999.0,   20.9,   21.1,   21.2,   20.1,   19.5,   13.6,  999.0,   18.4,   17.7,    1.4,    0.5,   16.1,    1.0,    7.6,  999.0,    7.4,    7.4,  999.0,    7.0,    7.1,  999.0,    1.5,   11.3,   10.9,    5.3,   10.1,    0.7,    0.7,    0.8,  999.0,  999.0,    0.6,    6.9,    5.6,    5.0,    5.1,    2.3,  999.0,    2.8,  999.0,    1.7,    1.9,    0.0,    0.2,  999.0,    0.9
2000/11/28 00:30,  999.0,   10.1,   17.5,   16.9,   11.7,  999.0,   -3.3,  999.0,  999.0,  999.0,   20.4,   20.7,   18.8,   19.0,   19.1,   18.7,   18.4,   16.7,   17.3,   16.6,   15.6,   15.7,  999.0,  999.0,   14.4,   13.4,  999.0,   12.5,   12.0,   11.0,  999.0,   10.4,   10.3,    9.0,    9.1,    7.6,    8.1,    6.3,    6.8,    6.5,    6.4,    5.5,    4.2,    4.9,    1.9,    2.9,    3.4,    0.8,    2.8,    1.4,    1.3,  999.0,    0.1,    0.5,    0.3,    0.4,    0.4,  999.0
2000/11/28 00:40,  999.0,  999.0,  999.0,  999.0,   22.0,   21.5,   21.4,   21.6,   21.5,   21.6,   22.6,   21.1,   21.5,   20.6,   20.2,   20.5,   20.8,   21.0,   20.6,   19.5,   19.4,   18.7,   17.0,   15.8,   15.9,   15.6,  999.0,   12.8,  999.0,   12.0,    9.7,    9.5,  999.0,    7.8,    6.5,    5.7,    5.1,    4.1,    3.2,    3.6,    1.6,    1.9,    1.3,  999.0,  999.0,  999.0,  999.0,  999.0,  999.0,  999.0,  999.0,  999.0,  999.0,  999.0,  999.0,  999.0,  999.0,  999.0
2000/11/28 00:50,  999.0,  999.0,  999.0,   21.6,   21.3,  999.0,  999.0,   21.7,   21.3,   21.4,  999.0,  999.0,  999.0,   20.4,   20.3,   21.4,  999.0,  999.0,   18.9,   19.6,   22.9,  999.0,   20.8,   15.5,   22.0,   14.3,   21.9,  999.0,   33.1,   34.0,   35.7,   36.8,    9.2,  999.0,   40.2,   40.8,    7.2,  999.0,   23.6,  999.0,  999.0,   41.3,   41.6,   41.3,  999.0,  999.0,  999.0,  999.0,  999.0,  999.0,  999.0,  999.0,  999.0,  999.0,  999.0,    4.2,  999.0,    0.7
2000/11/28 01:00,  999.0,  999.0,  999.0,  999.0,   21.4,  999.0,   21.9,   21.5,   21.9,   21.2,   21.5,  999.0,   21.8,   21.7,  999.0,  999.0,   21.7,   21.6,  999.0,  999.0,  999.0,  999.0,  999.0,  999.0,  999.0,  999.0,  999.0,  999.0,  999.0,  999.0,  999.0,  999.0,  999.0,  999.0,  999.0,  999.0,  999.0,  999.0,  999.0,  999.0,  999.0,  999.0,  999.0,  999.0,  999.0,  999.0,  999.0,  999.0,  999.0,  999.0,  999.0,  999.0,  999.0,  999.0,  999.0,  999.0,  999.0,  999.0
2000/11/28 01:10,  999.0,  999.0,  999.0,  999.0,   20.9,  999.0,   20.9,   21.4,   21.0,   21.0,   21.1,  999.0,   21.0,   20.9,   21.7,   22.6,   23.1,   20.7,   24.5,   25.3,   23.8,  999.0,  999.0,  999.0,  999.0,  999.0,  999.0,  999.0,  999.0,  999.0,  999.0,  999.0,  999.0,  999.0,  999.0,  999.0,  999.0,  999.0,  999.0,  999.0,  999.0,  999.0,  999.0,  999.0,  999.0,  999.0,  999.0,  999.0,  999.0,  999.0,  999.0,  999.0,  999.0,  999.0,   -1.2,   -1.2,   -1.0,   -0.5
2000/11/28 01:20,  999.0,  999.0,  999.0,  999.0,   21.5,  999.0,   21.8,   21.6,   21.1,   21.7,  999.0,   21.1,   20.6,   21.2,   20.6,   21.3,   20.2,   20.4,   23.2,   22.9,   25.3,  999.0,  999.0,  999.0,  999.0,  999.0,  999.0,  999.0,  999.0,  999.0,  999.0,  999.0,  999.0,  999.0,  999.0,  999.0,  999.0,  999.0,  999.0,  999.0,  999.0,  999.0,  999.0,  999.0,  999.0,  999.0,  999.0,  999.0,  999.0,  999.0,  999.0,  999.0,   -1.0,   -0.6,   -0.8,   -0.1,  999.0,   -0.5
2000/11/28 01:30,  999.0,  999.0,  999.0,  999.0,  999.0,  999.0,  999.0,  999.0,  999.0,   20.7,  999.0,   21.6,  999.0,  999.0,  999.0,   21.1,  999.0,   20.5,  999.0,  999.0,  999.0,  999.0,  999.0,  999.0,  999.0,  999.0,   10.9,  999.0,  999.0,  999.0,  999.0,  999.0,    4.4,  999.0,  999.0,  999.0,    0.9,  999.0,    1.1,  999.0,  999.0,    0.4,  999.0,  999.0,  999.0,  999.0,  999.0,  999.0,  999.0,  999.0,  999.0,  999.0,  999.0,  999.0,   -1.1,  999.0,  999.0,   21.2
2000/11/28 01:40,  999.0,  999.0,  999.0,  999.0,  999.0,  999.0,  999.0,  999.0,  999.0,   21.7,  999.0,  999.0,  999.0,  999.0,  999.0,  999.0,  999.0,   21.0,  999.0,  999.0,  999.0,   19.2,  999.0,  999.0,  999.0,  999.0,   16.1,  999.0,   14.6,  999.0,  999.0,   13.8,  999.0,    9.3,    8.2,    9.8,    7.9,  999.0,    7.1,    5.0,    6.6,  999.0,  999.0,  999.0,  999.0,  999.0,  999.0,  999.0,  999.0,  999.0,  999.0,  999.0,  999.0,  999.0,  999.0,    1.2,    0.5,    1.0
2000/11/28 01:50,  999.0,  999.0,  999.0,  999.0,  999.0,  999.0,  999.0,   23.5,  999.0,   20.4,   21.3,  999.0,  999.0,   21.2,  999.0,   21.1,  999.0,   20.8,  999.0,  999.0,  999.0,  999.0,  999.0,  999.0,  999.0,  999.0,  999.0,  999.0,   21.1,  999.0,  999.0,  999.0,  999.0,   21.6,  999.0,   22.2,  999.0,  999.0,   21.8,   22.1,   22.1,  999.0,  999.0,  999.0,  999.0,  999.0,  999.0,  999.0,  999.0,  999.0,  999.0,  999.0,  999.0,  999.0,  999.0,   22.6,   23.3,  999.0
2000/11/28 02:00,  999.0,  999.0,  999.0,  999.0,  999.0,  999.0,  999.0,   20.2,  999.0,   20.3,  999.0,  999.0,  999.0,   21.4,  999.0,  999.0,   20.4,  999.0,   18.5,  999.0,  999.0,  999.0,   15.9,  999.0,   13.9,  999.0,  999.0,  999.0,  999.0,  999.0,  999.0,  999.0,    8.3,  999.0,  999.0,    6.0,  999.0,  999.0,    4.1,  999.0,    2.9,  999.0,    1.6,  999.0,  -41.4,  -41.1,  999.0,  999.0,  999.0,  -41.9,  999.0,  999.0,    1.0,  -42.5,    0.8,    1.0,    0.5,    0.6
2000/11/28 02:10,  999.0,  999.0,  999.0,  999.0,  999.0,  999.0,  999.0,  999.0,  999.0,  999.0,  999.0,  999.0,  999.0,   21.0,  999.0,   21.3,   20.6,  999.0,   18.3,  999.0,  999.0,   15.6,   15.1,  999.0,   12.5,   12.8,  999.0,   10.4,   10.2,  999.0,    7.9,    6.9,    6.1,  999.0,    4.3,    3.7,    2.1,  999.0,    1.5,  999.0,    1.3,    0.0,  999.0,  999.0,  999.0,  999.0,    0.3,  999.0,  999.0,  999.0,    0.6,    0.1,    0.2,  999.0,    0.3,    0.5,    0.5,    0.8
2000/11/28 02:20,  999.0,  999.0,  999.0,  999.0,  999.0,  999.0,  999.0,   21.6,  999.0,   21.4,   20.7,   20.8,   20.6,   21.0,   20.9,   21.3,   18.2,  999.0,   15.2,  999.0,  999.0,   14.1,   13.4,   12.1,   11.4,    9.0,   11.6,   10.4,    7.7,    8.3,  999.0,    5.2,    3.4,    4.1,    4.2,    0.6,  999.0,    0.7,    1.0,    1.4,    1.3,    1.5,    0.9,    1.1,    0.8,  999.0,    0.7,  999.0,  999.0,  999.0,  999.0,    1.0,    0.6,  999.0,  999.0,    0.3,    1.0,    1.3
2000/11/28 02:30,  999.0,  999.0,  999.0,  999.0,  999.0,  999.0,  999.0,   21.5,  999.0,   21.7,   21.6,   21.5,  999.0,   20.5,   20.7,   20.8,   20.2,   23.4,   22.4,   22.4,   24.3,   26.8,   27.4,   27.6,  999.0,  999.0,   32.1,  999.0,  999.0,   33.0,   34.4,   35.9,   37.0,   38.4,   38.9,   40.0,   41.1,   41.7,   41.8,   25.6,   32.3,   39.3,  999.0,   29.2,  999.0,   28.8,   42.2,  999.0,   24.5,  999.0,  999.0,  999.0,  999.0,  999.0,  999.0,  999.0,  999.0,  999.0
2000/11/28 02:40,  999.0,  999.0,  999.0,  999.0,  999.0,  999.0,  999.0,  999.0,  999.0,   20.9,  999.0,  999.0,   20.5,   20.2,   21.1,   21.2,  999.0,   23.4,   23.8,   24.9,   26.4,  999.0,   28.0,  999.0,   30.3,   31.2,  999.0,   33.1,   34.0,  999.0,   35.5,   36.9,  999.0,   39.3,   39.1,   40.7,   40.9,   41.9,   42.2,   42.9,  999.0,   42.0,  999.0,  999.0,  999.0,   41.9,   41.2,   41.3,  999.0,   41.4,   42.0,   41.5,   41.7,  999.0,  999.0,   41.7,   41.8,   41.7
2000/11/28 02:50,  999.0,  999.0,  999.0,  999.0,  999.0,  999.0,  999.0,  999.0,  999.0,  999.0,  999.0,  999.0,  999.0,  999.0,  999.0,  999.0,  999.0,   22.3,   23.3,   23.1,   25.0,   25.2,   26.8,   27.5,   27.2,  999.0,   29.6,   30.9,   30.6,  999.0,   32.5,  999.0,   34.4,   35.0,   35.7,   36.1,   37.4,  999.0,   38.7,  999.0,   40.9,  999.0,   42.2,   41.5,   42.1,   41.8,  999.0,   41.0,  999.0,  999.0,  999.0,  999.0,   -0.2,    1.0,  999.0,  999.0,    1.2,    0.4
2000/11/28 03:00,  999.0,  999.0,  999.0,  999.0,  999.0,  999.0,  999.0,  999.0,  999.0,   21.3,  999.0,   21.0,  999.0,  999.0,   20.9,  999.0,   20.7,   20.1,   20.3,  999.0,   18.7,   17.5,   16.5,  999.0,   15.0,  999.0,   13.6,  999.0,   12.2,  999.0,  999.0,    9.8,  999.0,  999.0,  999.0,  999.0,    5.3,    4.3,  999.0,  999.0,  999.0,    1.3,    1.1,    0.9,    0.6,  999.0,  999.0,    0.8,  999.0,    1.2,    0.9,  999.0,    0.2,  999.0,  999.0,  999.0,    0.7,  999.0
2000/11/28 03:10,  999.0,  999.0,  999.0,  999.0,    8.5,    8.9,    4.5,  999.0,    2.7,    1.7,    1.9,    5.6,  999.0,  999.0,  999.0,  999.0,  999.0,  999.0,  999.0,  999.0,  999.0,  999.0,  999.0,  999.0,  999.0,  999.0,  999.0,  999.0,  999.0,  999.0,  999.0,  999.0,  999.0,  999.0,  999.0,  999.0,  999.0,  999.0,  999.0,  999.0,  999.0,  999.0,  999.0,  999.0,  999.0,  999.0,  999.0,  999.0,  999.0,  999.0,  999.0,  999.0,  999.0,  999.0,  999.0,  999.0,  999.0,  999.0
2000/11/28 03:20,  999.0,   10.9,  999.0,    6.7,   21.5,  999.0,    6.4,    7.4,   -0.8,   -0.8,   19.8,    5.2,    9.9,   21.2,   21.0,   20.6,  999.0,   21.1,  999.0,  999.0,  999.0,  999.0,  999.0,  999.0,  999.0,  999.0,  999.0,  999.0,  999.0,  999.0,  999.0,  999.0,  999.0,  999.0,  999.0,  999.0,  999.0,  999.0,  999.0,  999.0,  999.0,  999.0,  999.0,  999.0,  999.0,  999.0,  999.0,  999.0,  999.0,  999.0,  999.0,  999.0,  999.0,  999.0,  999.0,  999.0,  999.0,  999.0
2000/11/28 03:30,  999.0,  999.0,  999.0,  999.0,    8.8,    4.7,    1.5,   -0.3,   -0.7,    9.9,  999.0,  999.0,    7.0,    7.9,  999.0,   14.9,   21.6,  999.0,  999.0,  999.0,  999.0,  999.0,  999.0,  999.0,  999.0,  999.0,  999.0,  999.0,  999.0,  999.0,  999.0,  999.0,  999.0,  999.0,  999.0,  999.0,  999.0,  999.0,  999.0,  999.0,  999.0,  999.0,  999.0,  999.0,  999.0,  999.0,  999.0,  999.0,  999.0,  999.0,  999.0,  999.0,  999.0,  999.0,  999.0,  999.0,  999.0,  999.0
2000/11/28 03:40,  999.0,  999.0,    6.7,  999.0,    0.9,    1.0,    4.9,    5.0,    4.7,   11.1,   15.1,  999.0,  999.0,  999.0,  999.0,  999.0,  999.0,   21.8,  999.0,  999.0,  999.0,  999.0,  999.0,  999.0,  999.0,  999.0,  999.0,  999.0,  999.0,  999.0,  999.0,  999.0,  999.0,  999.0,  999.0,  999.0,  999.0,  999.0,  999.0,  999.0,  999.0,  999.0,  999.0,  999.0,  999.0,  999.0,  999.0,  999.0,  999.0,  999.0,  999.0,  999.0,  999.0,  999.0,  999.0,  999.0,  999.0,  999.0
2000/11/28 03:50,  999.0,  999.0,  999.0,    0.1,    0.6,    0.9,    7.0,    5.4,    2.4,    3.2,    0.4,   -0.1,  999.0,   20.9,    8.9,  999.0,  999.0,  999.0,  999.0,  999.0,  999.0,  999.0,  999.0,  999.0,  999.0,  999.0,  999.0,  999.0,  999.0,  999.0,  999.0,  999.0,  999.0,  999.0,  999.0,  999.0,  999.0,  999.0,  999.0,  999.0,  999.0,  999.0,  999.0,  999.0,  999.0,  999.0,  999.0,  999.0,  999.0,  999.0,  999.0,  999.0,  999.0,  999.0,  999.0,  999.0,  999.0,  999.0
2000/11/28 04:00,  999.0,    3.5,  999.0,  999.0,    3.1,    3.6,    3.2,    5.9,   -0.5,    2.5,    4.4,  999.0,  999.0,  999.0,  -20.3,  -21.7,  999.0,  999.0,  999.0,  999.0,  999.0,  999.0,  999.0,  999.0,  999.0,  999.0,  999.0,  999.0,  999.0,  999.0,  999.0,  999.0,  999.0,  999.0,  999.0,  999.0,  999.0,  999.0,  999.0,  999.0,  999.0,  999.0,  999.0,  999.0,  999.0,  999.0,  999.0,  999.0,  999.0,  999.0,  999.0,  999.0,  999.0,  999.0,  999.0,  999.0,  999.0,  999.0
2000/11/28 04:10,  999.0,    5.5,  999.0,    8.3,    0.7,  999.0,    5.3,   -2.7,    2.8,    3.5,    4.6,    7.5,    7.0,  999.0,    7.2,   20.6,   11.8,  999.0,   20.5,  999.0,  999.0,  999.0,  999.0,  999.0,  999.0,  999.0,  999.0,  999.0,  999.0,  999.0,   21.0,   20.2,  999.0,  999.0,   20.6,  999.0,  999.0,   20.7,  999.0,  999.0,  999.0,  999.0,  999.0,  999.0,   20.1,  999.0,  999.0,   20.3,  999.0,  999.0,   20.1,  999.0,  999.0,   20.5,  999.0,   19.5,   19.8,  999.0
2000/11/28 04:20,  999.0,    5.1,    1.5,    2.4,    1.2,  999.0,    1.8,  999.0,    3.2,    7.6,    3.4,    2.5,    1.4,  999.0,  999.0,  999.0,  999.0,  999.0,  999.0,  999.0,  999.0,  999.0,  999.0,  999.0,  999.0,  999.0,  999.0,  999.0,  999.0,  999.0,  999.0,  999.0,  999.0,  999.0,  999.0,  999.0,  999.0,  999.0,  999.0,  999.0,  999.0,  999.0,  999.0,  999.0,  999.0,  999.0,  999.0,  999.0,  999.0,  999.0,  999.0,  999.0,  999.0,  999.0,  999.0,  999.0,  999.0,  999.0
2000/11/28 04:30,  999.0,  999.0,    3.0,   -0.6,    2.5,   -0.8,    3.9,    0.6,    0.8,   -0.9,    1.5,   -1.9,   -5.4,   -4.4,    0.2,    5.3,  999.0,  999.0,  999.0,  999.0,  999.0,  999.0,  999.0,  999.0,  999.0,  999.0,  999.0,  999.0,  999.0,  999.0,  999.0,  999.0,  999.0,  999.0,  999.0,  999.0,  999.0,  999.0,  999.0,  999.0,  999.0,  999.0,  999.0,  999.0,  999.0,  999.0,  999.0,  999.0,  999.0,  999.0,  999.0,  999.0,  999.0,  999.0,  999.0,  999.0,  999.0,  999.0
2000/11/28 04:40,  999.0,   -0.2,    1.2,    0.3,    1.9,    4.4,    5.2,    0.2,   -7.6,   -2.6,   -0.7,   -1.8,    4.9,  999.0,  999.0,    3.2,    2.9,  999.0,  999.0,   20.1,  999.0,  999.0,  999.0,  999.0,  999.0,  999.0,  999.0,  999.0,  999.0,  999.0,  999.0,  999.0,  999.0,  999.0,  999.0,  999.0,  999.0,  999.0,  999.0,  999.0,  999.0,  999.0,  999.0,  999.0,  999.0,  999.0,  999.0,  999.0,  999.0,  999.0,  999.0,  999.0,  999.0,  999.0,  999.0,  999.0,  999.0,  999.0
2000/11/28 04:50,  999.0,    4.0,    5.0,    3.5,    4.3,    3.3,    7.4,    4.5,    2.7,   -1.4,   -0.5,  999.0,   21.6,  999.0,  999.0,  999.0,   21.3,   21.5,  999.0,  999.0,   19.3,   18.7,  999.0,  999.0,  999.0,  999.0,   17.2,  999.0,   15.5,   15.3,  999.0,   13.9,  999.0,   12.8,   12.5,  999.0,   11.5,   10.7,  999.0,  999.0,  999.0,  999.0,  999.0,  999.0,    6.9,    6.2,  999.0,  999.0,    4.9,  999.0,    3.1,  999.0,  999.0,    1.8,    0.7,  999.0,  999.0,  999.0
2000/11/28 05:00,  999.0,  999.0,  999.0,    2.8,   21.0,   22.1,   14.1,   21.1,   23.1,   21.8,   21.3,  999.0,   20.8,   21.3,   20.9,   20.9,   21.1,  999.0,   21.3,  999.0,   19.8,   18.8,   18.4,   17.4,   16.5,  999.0,   13.9,   12.2,   12.4,   12.0,   11.3,  999.0,    9.2,    6.9,    7.5,  999.0,    4.0,    3.4,  999.0,    4.7,    2.8,    0.5,    1.3,    1.4,  999.0,  999.0,    1.3,  999.0,    0.9,    0.7,    0.6,  999.0,    0.6,  999.0,  999.0,  999.0,  999.0,    0.7
2000/11/28 05:10,  999.0,  999.0,   21.7,  999.0,   21.5,   21.9,   22.3,  999.0,   22.0,   21.1,   20.7,   21.4,   21.6,  999.0,   21.3,   21.4,  999.0,   21.4,   20.6,   19.3,   17.7,   16.9,  999.0,   15.9,   13.3,   12.0,   12.2,   10.9,   10.1,    9.9,    7.2,  999.0,    6.5,  999.0,    5.5,    1.4,    1.4,  999.0,    0.8,    0.6,  999.0,  999.0,    0.7,  999.0,    0.1,    0.3,    0.3,    1.3,    1.7,    1.3,    1.0,    0.8,    0.5,    1.0,    0.6,  999.0,    0.2,    0.7
2000/11/28 05:20,  999.0,  999.0,  999.0,   21.8,   21.4,   22.0,   21.3,   21.7,   21.7,   21.8,   20.7,   21.2,   21.4,   20.5,   20.5,   21.6,   21.4,   21.3,   20.4,   19.2,   18.8,   17.5,   16.4,  999.0,  999.0,   13.1,  999.0,   11.2,   10.8,    8.9,  999.0,    6.7,    6.8,    4.4,    3.9,    4.3,    1.4,    4.7,    1.6,  999.0,    1.4,    1.5,    1.4,    0.7,    0.8,    1.2,    1.2,    0.5,    0.9,    0.9,    0.6,    0.8,    0.8,    0.1,    0.8,    0.8,    1.1,    0.6
2000/11/28 05:30,  999.0,  999.0,  999.0,   21.8,   21.6,   21.5,   21.1,   20.9,   21.1,  999.0,   20.8,   21.1,   20.9,   21.2,  999.0,   20.5,   18.4,   19.5,   18.1,   17.3,   18.0,   14.9,   14.5,   12.5,   12.4,   11.6,   10.9,    9.7,    8.8,    7.2,    5.6,    4.8,    3.5,    2.5,    1.4,    0.7,    2.0,    0.9,    0.1,    1.3,    0.8,    0.8,    0.9,    1.2,    0.5,    0.7,    0.4,    0.4,    0.9,    0.7,    1.1,    0.5,    1.0,    0.4,    0.3,    1.1,    1.1,    0.2
2000/11/28 05:40,  999.0,  999.0,  999.0,   20.0,   21.6,  999.0,   22.3,   21.4,   21.6,   20.8,   20.9,  999.0,   20.5,   20.8,   20.6,   20.4,  999.0,  999.0,   20.8,   19.4,   18.7,   17.5,   16.0,   15.8,   14.3,   13.5,   12.9,   11.6,  999.0,    9.7,    9.2,    7.0,    6.2,    6.3,    3.1,    2.0,    3.2,    0.9,    1.0,    0.6,    0.9,    0.0,    0.2,    0.2,    0.8,    0.3,    0.6,    0.4,    0.3,    0.8,    1.2,    0.5,    0.8,    0.6,    1.1,    1.3,    1.0,    1.0
2000/11/28 05:50,  999.0,  999.0,  999.0,  999.0,  999.0,   21.7,   22.1,   20.2,   21.0,   21.4,   22.1,  999.0,   21.7,   21.6,   21.4,   20.9,  999.0,   20.6,   20.0,  999.0,   17.4,   16.8,  999.0,   13.6,   12.5,   13.0,    9.8,  999.0,    8.7,    8.9,  999.0,    5.4,    4.4,  999.0,    2.6,    1.8,    1.4,    0.3,    0.9,    0.5,    1.0,    0.9,    0.9,    0.7,    0.4,    0.7,    1.3,    0.5,    0.4,    0.3,    0.9,    0.3,    1.0,    0.3,    0.7,    0.5,    0.3,    0.9
2000/11/28 06:00,  999.0,  999.0,  999.0,  999.0,  999.0,  999.0,  999.0,  999.0,  999.0,  999.0,  999.0,  999.0,  999.0,  999.0,  999.0,  999.0,  999.0,  999.0,   18.9,   17.4,  999.0,  999.0,   13.8,   13.6,  999.0,  999.0,  999.0,  999.0,  999.0,  999.0,  999.0,  999.0,    3.2,  999.0,  999.0,  999.0,  999.0,    0.8,  999.0,  999.0,    0.8,  999.0,    1.0,    0.8,  999.0,  999.0,    0.6,    0.8,    0.4,    1.1,    1.2,    1.3,    1.1,    0.5,  999.0,    0.1,  999.0,    0.1
2000/11/28 06:10,  999.0,  999.0,  999.0,  999.0,  999.0,  999.0,  999.0,  999.0,  999.0,  999.0,  999.0,  999.0,  999.0,   19.0,   18.3,   18.0,  999.0,  999.0,  999.0,  999.0,  999.0,  999.0,  999.0,  999.0,  999.0,  999.0,  999.0,  999.0,  999.0,  999.0,  999.0,  999.0,  999.0,  999.0,  999.0,  999.0,  999.0,  999.0,  999.0,  999.0,    0.8,  999.0,    0.0,    0.7,  999.0,    0.9,    1.3,  999.0,  999.0,  999.0,  999.0,  999.0,    0.5,  999.0,    1.3,  999.0,  999.0,  999.0
2000/11/28 06:20,  999.0,  999.0,  999.0,  999.0,  999.0,  999.0,  999.0,    9.0,  999.0,  999.0,  999.0,  999.0,  999.0,  999.0,  999.0,   18.4,  999.0,  999.0,   15.6,   15.1,  999.0,  999.0,  999.0,  999.0,  999.0,  999.0,  999.0,  999.0,  999.0,  999.0,  999.0,  999.0,  999.0,  999.0,  999.0,  999.0,  999.0,  999.0,  999.0,  999.0,  999.0,  999.0,  999.0,  999.0,  999.0,  999.0,  999.0,  999.0,  999.0,  999.0,  999.0,  999.0,  999.0,  999.0,  999.0,  999.0,  999.0,  999.0
2000/11/28 06:30,  999.0,  999.0,    5.0,    2.3,    7.2,  999.0,    1.5,  999.0,  999.0,  999.0,  999.0,  999.0,  999.0,  999.0,  999.0,  999.0,   19.3,  999.0,  999.0,  999.0,  999.0,  999.0,  999.0,  -12.0,  999.0,  999.0,  999.0,  999.0,  999.0,  999.0,  999.0,  999.0,  -31.8,  999.0,  999.0,  -33.6,  999.0,  -34.9,  -35.9,  999.0,  -39.3,  -39.8,  -40.0,  -40.8,  -39.3,  999.0,  -41.3,  -41.4,  -41.8,  -41.5,  -42.0,  -41.6,  -41.7,  999.0,  -40.8,  -42.0,  999.0,  -41.5
2000/11/28 06:40,  999.0,    3.2,    1.8,    7.2,  999.0,  999.0,   -0.2,    3.4,    3.0,   -3.8,  999.0,  999.0,  999.0,    1.2,   20.6,  999.0,   21.6,  999.0,   19.8,   18.8,  999.0,  999.0,  999.0,   16.1,  999.0,  999.0,  999.0,  999.0,  999.0,  999.0,  999.0,    9.9,  999.0,  999.0,    8.0,  -14.4,  999.0,  -38.3,  -38.8,  -38.3,    2.9,  -26.3,  -40.6,  -19.8,  -41.7,  -20.0,  -41.5,  -41.4,    1.3,  -20.2,  -20.3,  -30.4,  -27.2,    1.8,  999.0,  -41.5,  -41.5,  -42.0
2000/11/28 06:50,  999.0,    2.9,  999.0,  999.0,  999.0,  999.0,   -0.3,   -0.1,   -0.1,    2.6,  999.0,  999.0,  999.0,  999.0,  999.0,  999.0,  999.0,  999.0,  999.0,  999.0,  999.0,  999.0,  999.0,   15.1,  999.0,  999.0,  999.0,  999.0,  -34.8,  999.0,  999.0,  999.0,  -17.6,  -17.6,  -40.5,  -41.5,  -41.6,  -42.2,    1.3,  -20.2,  -27.6,  -41.4,  -41.2,  999.0,  -41.8,  -27.4,  -42.0,  -41.5,  -27.7,  -41.9,  -41.8,  -41.9,  -42.1,  -42.0,  -41.5,  -41.4,  -41.6,  -41.2
2000/11/28 07:00,  999.0,    2.6,    4.7,    4.7,  999.0,    2.8,  999.0,    5.1,    4.8,    5.3,  999.0,  999.0,   21.2,   21.1,   20.7,  999.0,  999.0,   19.8,   18.6,  999.0,   16.9,  999.0,  999.0,  999.0,  999.0,  -33.2,  -34.3,  -35.3,  -35.9,  -36.8,  -39.2,  -39.4,  -40.0,  -41.1,  -41.4,  -42.0,  -41.9,  -42.2,  -41.9,  -41.8,  -41.8,  -41.4,  -41.5,  -42.1,  -42.4,  -42.2,  -41.8,  -41.5,  -41.5,  -41.2,  -41.6,  -41.8,  -41.8,  999.0,  -41.0,  -41.5,  -42.2,  -42.1
2000/11/28 07:10,  999.0,    3.0,    5.0,    7.2,    0.2,    0.3,    0.4,    1.9,  999.0,  999.0,    1.9,  999.0,  999.0,  999.0,  999.0,  999.0,  999.0,  999.0,  999.0,  999.0,  999.0,  -29.3,  -30.5,  -31.1,  -33.0,  -34.6,  -35.1,  -36.4,  -38.3,  -40.1,  -41.0,  -41.5,  -41.8,  -42.5,  -41.8,  -42.0,  -42.1,  -41.8,  -41.9,  -41.8,  -41.9,  -42.0,  -41.5,  -42.9,  -41.9,  -41.8,  -41.9,  -42.0,  -42.0,  -42.0,  -41.9,  -42.1,  -42.0,  -42.3,  -42.3,  -41.8,  -41.8,  -41.9
2000/11/28 07:20,  999.0,    0.1,    5.8,    6.9,    0.4,    0.4,    0.3,    1.4,    0.2,  999.0,    3.7,  999.0,  999.0,  999.0,  999.0,  999.0,  999.0,  999.0,  999.0,   14.5,   13.0,  999.0,  -10.4,    8.5,    7.5,  -35.9,  -37.6,  -38.3,  -39.4,  -38.9,  999.0,  -42.0,  999.0,  -41.9,  -42.0,  999.0,  -42.0,  -41.7,  999.0,  -41.6,  999.0,  -42.0,  -42.1,  -42.2,  -41.8,  999.0,  -41.9,  -42.9,  999.0,  -42.0,  999.0,  -42.3,  -41.8,  -42.2,  -42.6,  999.0,  -41.8,  -42.2
2000/11/28 07:30,  999.0,  999.0,  999.0,  999.0,  999.0,  999.0,  999.0,  999.0,  999.0,  999.0,  999.0,  999.0,  -21.6,  -21.9,  -21.2,  -23.7,  -21.5,  -24.8,  -26.4,  -26.3,  999.0,  -28.3,  -29.7,  999.0,  -30.8,  -31.1,  999.0,  999.0,  999.0,  999.0,  -35.1,  -36.2,  999.0,  999.0,  -38.4,  -39.5,  -40.4,  999.0,  999.0,  -41.3,  -40.8,  999.0,  999.0,  999.0,  999.0,  999.0,  999.0,  999.0,  999.0,  999.0,  999.0,  999.0,  999.0,  999.0,  999.0,  999.0,  999.0,    1.7
2000/11/28 07:40,  999.0,  999.0,  999.0,    0.0,   -1.6,  999.0,  999.0,  999.0,  999.0,  999.0,  999.0,  999.0,  -21.0,  -21.7,  -10.7,  -21.5,  -21.1,  -22.0,  -22.3,  -23.8,  999.0,  -24.9,  -24.7,  -25.4,  -28.1,  999.0,  -28.9,  -27.8,  -27.4,  999.0,  -30.8,  -29.7,  -30.4,  -33.5,  -31.9,  -32.1,  -34.1,  -35.9,  -35.7,  999.0,  -37.0,  999.0,  999.0,  999.0,  999.0,  999.0,  999.0,  999.0,  999.0,  999.0,  999.0,    1.5,  999.0,    0.2,    1.1,    0.1,    1.1,    0.8
2000/11/28 07:50,  999.0,  999.0,  999.0,  999.0,  999.0,  999.0,  -21.2,  -20.8,  999.0,  -21.7,  999.0,  -22.1,  999.0,  -21.4,  -21.1,  -20.9,  -20.9,  -21.1,  -21.3,  -22.3,  -23.1,  999.0,  -24.2,  -24.7,  -26.1,  -25.7,  -25.8,  -27.1,  -26.8,  -28.3,  -29.3,  -31.0,  -30.9,  -30.8,  -31.8,  -33.2,  -33.2,  -34.8,  -34.9,  -35.7,  999.0,  -34.4,  999.0,  999.0,  999.0,  999.0,  999.0,  999.0,  999.0,  999.0,  999.0,  999.0,  999.0,    1.3,  999.0,    0.4,  999.0,    1.0
2000/11/28 08:00,  999.0,  999.0,  -21.3,  999.0,  999.0,  999.0,  -16.0,  -21.1,  -21.0,  -22.3,  999.0,   21.5,  999.0,   21.0,  -22.2,  999.0,  999.0,  999.0,   12.0,   -3.0,  -10.3,    0.4,  -12.8,    0.3,   -8.6,  -27.3,  -13.9,  -14.7,    8.3,   -6.2,  -31.6,   -8.7,    0.9,   -4.5,   11.0,  -17.2,  -17.5,   -4.3,  -37.3,  999.0,  -18.6,    0.4,    8.6,   27.5,   18.7,   23.3,  999.0,   33.1,  999.0,  999.0,   42.4,   41.6,   41.9,   42.0,   42.5,  999.0,   42.3,   42.2
2000/11/28 08:10,  999.0,    2.8,    1.8,    3.8,   -0.8,  999.0,  999.0,    9.0,  999.0,  999.0,   21.4,   21.8,   20.9,   20.6,   21.1,   19.3,   19.4,   18.8,   14.7,   27.1,   15.9,   15.2,   12.0,   19.7,    5.3,    6.4,   19.0,   37.8,   10.1,   32.0,   33.7,   30.3,   30.7,   37.1,   34.7,   24.3,   -1.1,   41.4,   41.8,   31.4,   34.8,   42.3,   -1.5,   27.9,   36.6,   42.0,   30.0,   13.7,   20.9,   41.7,   17.0,   41.5,   39.7,   23.2,   31.0,   31.0,   -0.9,   41.2
2000/11/28 08:20,  999.0,  999.0,    2.0,    1.7,    4.8,  999.0,    8.3,  999.0,  999.0,   21.2,   21.6,   21.5,   21.2,   21.0,   21.1,   21.2,   22.5,   23.5,   24.2,   25.1,   25.8,   26.7,   28.0,   28.6,   29.5,   30.1,   31.4,   32.3,   33.2,   33.8,   35.1,   36.0,   36.6,   37.3,   38.6,   39.9,   40.2,   41.0,   41.6,   41.9,   41.7,   41.9,   42.0,   41.7,   41.8,   41.7,   41.9,   41.8,   42.0,   41.7,   41.8,   41.5,   41.9,   41.7,   41.3,   41.7,   42.0,   41.5
2000/11/28 08:30,  999.0,    2.2,    0.8,    1.5,    1.2,    9.1,    0.7,    1.9,   21.8,   21.1,  999.0,   21.1,   21.1,   21.5,   21.2,   20.6,   19.4,   18.0,   10.5,   13.4,   14.5,  999.0,   14.1,    0.8,   15.1,   -5.9,   20.9,  999.0,   33.7,  999.0,   35.0,   35.9,  -43.3,  999.0,   -1.5,   -2.0,   -0.7,    0.3,    0.0,   42.7,   42.9,    0.1,    0.2,    0.1,   -0.1,  -21.5,  -41.9,  -21.0,   -0.2,  -21.0,  -21.9,  -25.0,   -5.0,  -23.3,   -0.0,   42.6,   -0.1,   42.0
2000/11/28 08:40,  999.0,    6.4,    4.0,    0.8,    0.0,  999.0,    1.7,    0.2,  999.0,  999.0,   21.3,   21.3,  999.0,   21.1,   18.9,   19.1,  999.0,   14.0,   11.8,    8.9,    5.8,  999.0,  999.0,    1.1,  -20.7,    0.6,  999.0,  999.0,    0.2,  999.0,    0.6,    0.7,  -27.7,  -20.2,  -41.9,  -18.5,  -28.5,  999.0,  999.0,    8.8,  -10.6,    0.2,   43.3,   42.5,   -6.4,  -17.6,    0.1,   -3.7,   42.0,   -6.3,   -9.8,   -9.4,    2.4,   17.0,   -6.2,   20.8,   -1.9,   41.5
2000/11/28 08:50,  999.0,    2.3,    5.8,   -0.3,    0.0,  999.0,    0.5,  999.0,  999.0,  999.0,  999.0,  999.0,  999.0,  999.0,  999.0,  999.0,   14.6,  999.0,    7.2,  999.0,    2.2,    0.8,    0.6,  999.0,    1.1,    1.2,  999.0,    0.9,    0.1,  999.0,    0.6,  999.0,  999.0,    1.0,  999.0,  -41.7,  999.0,  -41.8,  999.0,  999.0,  -11.8,  999.0,    1.3,  -41.2,   -6.8,    8.4,  -15.2,   -7.8,  -16.3,   -1.6,  -14.3,  -14.8,   -7.5,   10.3,   20.6,    9.9,  -11.0,   20.6
2000/11/28 09:00,  999.0,  999.0,  999.0,  999.0,    1.1,    0.2,   -0.1,    6.8,    3.5,  999.0,  999.0,  999.0,  999.0,  999.0,  999.0,  999.0,  999.0,  999.0,  999.0,  999.0,  999.0,  999.0,  999.0,  999.0,  -41.5,  -42.5,  999.0,  999.0,  999.0,  999.0,  -41.2,    1.2,  -42.3,   -0.1,  -42.1,  -40.0,  -39.7,  -38.7,  -33.6,  -31.0,  -32.8,  -26.0,  -32.9,  999.0,  -41.2,  -25.1,  -14.6,  -12.4,  -10.2,   -7.4,   -5.1,   -9.0,   -1.2,   -5.9,   11.8,   -0.8,    6.5,    6.4
2000/11/28 09:10,  999.0,  999.0,    0.3,    1.6,    0.3,  999.0,    0.3,    3.8,    3.5,  999.0,  999.0,  999.0,  999.0,  999.0,  999.0,  999.0,  999.0,  999.0,  999.0,  999.0,  999.0,  999.0,  999.0,  999.0,  -42.3,  999.0,  999.0,  999.0,  999.0,  999.0,  -42.2,  -41.6,  -41.7,  -40.5,  -41.7,  999.0,  -38.3,  -33.8,  -31.6,  -28.7,  -25.9,  -24.3,  -22.2,  -20.0,  -17.7,  -12.7,  -13.1,  -14.9,    5.7,   -7.4,    6.3,    2.7,   -6.2,   12.0,   -1.0,   -0.8,   -0.9,   -1.1
2000/11/28 09:20,  999.0,    2.8,    6.3,    7.8,    2.5,  999.0,    8.1,    1.8,  999.0,   23.6,  999.0,   20.8,   20.8,   21.2,  999.0,   19.2,  999.0,  999.0,  999.0,  999.0,  999.0,  999.0,  999.0,  -40.8,  999.0,  -42.1,  -41.6,  999.0,  999.0,  999.0,  -42.2,  -42.5,  -41.4,  -41.9,  -42.2,  -36.3,  -32.0,  -36.7,  -34.5,  -32.1,  -29.6,  -18.8,   -1.5,  -24.1,  -21.0,  -10.0,  -17.8,  -15.5,  -12.4,   -9.8,   -8.0,   -6.1,   -3.4,   -2.7,   12.5,   13.6,   -1.0,   -0.7
2000/11/28 09:30,  999.0,  999.0,    3.2,    6.6,    4.3,    2.2,    5.5,    2.3,  999.0,  999.0,  999.0,  999.0,  999.0,   20.7,   18.7,  999.0,  999.0,  999.0,  999.0,  999.0,  999.0,  999.0,  999.0,  -41.6,  -41.7,    0.2,    0.3,  -41.7,  999.0,  -42.1,  -41.7,  -41.9,  -41.7,  -34.7,  -20.4,  -41.7,  -40.0,  -33.1,  -35.1,  -16.3,  -31.3,  -23.7,  -27.6,  -31.5,  -22.2,  -27.3,  -14.3,  -22.8,  -10.6,  -17.4,  -14.6,  -13.1,  -13.6,   -4.9,  -10.2,  -12.2,   -8.1,    0.4
2000/11/28 09:40,  999.0,    1.3,    5.3,    6.5,    7.7,    6.0,    6.4,    6.9,    8.6,  999.0,  999.0,  999.0,  999.0,  999.0,  999.0,  999.0,  999.0,  999.0,  999.0,   21.9,  999.0,  999.0,   25.6,  -42.1,   -7.0,  -42.7,  -42.3,  -40.9,  999.0,  999.0,  -42.4,  -42.1,  -42.1,  -41.5,  -12.0,  -11.0,  -13.5,   -8.7,    0.0,  -14.4,   20.8,   20.4,  -14.5,  -21.5,   -1.4,    1.8,  -18.2,    2.8,  -10.6,    4.4,   -1.8,   20.6,    0.3,    1.1,   20.5,   10.0,   16.6,    4.3
2000/11/28 09:50,  999.0,  999.0,    2.4,    3.9,    4.2,    5.6,    7.8,    7.9,    7.9,    9.6,    6.9,  999.0,  999.0,    8.9,    8.0,    9.0,  999.0,  999.0,  999.0,  999.0,  999.0,  999.0,  999.0,  999.0,  -13.2,  -12.7,  999.0,  -10.7,   -9.1,   -8.6,   -7.4,   -6.6,   -5.5,   -4.8,   -3.5,   -2.4,   -2.1,   -1.4,   -0.9,   -0.6,   -0.8,   -0.7,   -0.4,   -0.7,   -0.9,   -0.6,  999.0,   -0.5,   -0.5,   -0.9,   -0.7,   -0.9,   -0.9,   -0.8,   -0.6,   -1.3,   -0.6,   -0.9
2000/11/28 10:00,  999.0,    5.7,    6.9,    4.1,    5.6,    6.2,    4.4,  999.0,    0.5,   21.6,    6.9,  999.0,  999.0,  999.0,  999.0,  999.0,   22.4,   23.0,  999.0,  999.0,   25.8,  999.0,   27.1,    8.0,    8.9,    2.7,    8.9,   -8.4,   -9.8,   -9.5,   -8.4,   -5.2,   14.8,    3.2,    3.8,   17.9,  -18.3,   19.9,   -0.6,   -0.5,    9.5,   -7.7,   -1.0,   20.7,    9.6,    9.7,  -10.9,   19.9,  999.0,   -0.2,    0.4,   -0.4,   41.7,   -0.5,   -7.1,   -0.9,  -14.0,  999.0
2000/11/28 10:10,  999.0,    0.9,    2.0,    3.4,    5.7,    6.0,    4.4,    7.2,   21.2,  999.0,    6.6,  999.0,  999.0,    7.7,    8.6,    8.5,  999.0,  999.0,  999.0,  999.0,   30.5,  999.0,  999.0,   -2.9,  999.0,   -0.4,   20.3,  -41.8,  -21.5,  -21.4,  -21.3,  -21.2,  -21.5,   -0.8,  -14.1,  -14.4,   -0.6,   -0.4,   -6.2,   -4.6,   -0.8,  -10.8,   -0.5,    6.9,   10.4,    6.7,   -0.3,    6.9,   -8.0,   -0.4,    3.8,  -13.2,    2.6,   -0.6,  -11.8,   -0.9,   -0.7,   -1.1
2000/11/28 10:20,  999.0,    1.3,    2.7,    4.7,    5.3,    5.8,    5.9,    6.5,    7.3,    6.3,    3.2,  999.0,  999.0,  999.0,  999.0,  999.0,  999.0,  999.0,   23.8,    8.1,  999.0,    1.1,    1.0,    6.5,   10.1,   11.1,   -6.6,   -4.9,   -3.9,   -1.2,   -0.7,   -1.3,   -1.6,   -1.0,  -21.1,   -0.6,  -10.2,   -0.3,    6.7,    4.5,   -8.8,  -26.8,  -10.1,  -42.5,  -42.3,  -42.1,  -20.8,  -41.3,  -41.5,  -41.7,  -42.5,  -41.9,  -41.6,  -41.9,  -41.5,  -41.3,  -42.0,  -42.4
2000/11/28 10:30,  999.0,    1.6,    3.5,    4.0,    5.3,    6.2,    8.1,    6.9,    8.3,  999.0,    7.4,  999.0,  999.0,  999.0,  999.0,  999.0,   22.0,  999.0,   19.9,   24.2,   26.2,   20.7,   28.6,   29.8,   41.5,   27.7,   27.2,  999.0,  999.0,  999.0,  999.0,  999.0,    7.7,   42.4,    6.2,  999.0,  -15.2,  -16.6,  -10.0,  -25.3,  -17.0,   -5.1,   -8.4,  -31.8,    8.9,  -39.4,  -20.7,  -20.6,  -42.1,  -41.8,  -20.9,  -27.6,  -41.7,  -31.0,  -31.0,  -20.5,  -20.9,  -27.4
2000/11/28 10:40,  999.0,    4.5,    3.4,    5.1,    6.5,    6.5,    6.7,  999.0,    6.6,  999.0,   20.3,   21.5,  999.0,   20.6,  999.0,  999.0,   21.5,  999.0,   21.8,   19.3,   17.3,   16.1,   14.2,  999.0,   14.6,   14.0,  999.0,  999.0,   12.2,  -21.2,   -4.0,  999.0,    9.8,  999.0,  999.0,   -6.2,   -6.4,  999.0,    6.5,  -31.6,   -2.8,  -18.4,  -23.1,  -41.6,  -19.5,  -20.0,  999.0,  -41.3,  -27.9,  -21.1,  -27.6,  -19.9,  -41.6,  -41.7,  -41.9,  999.0,  -41.8,  -41.3
2000/11/28 10:50,  999.0,    6.1,    3.6,    4.3,    4.2,    5.4,    5.1,    6.8,    7.2,    5.2,  999.0,  999.0,  999.0,  999.0,  999.0,  999.0,   29.6,   31.3,  999.0,  999.0,  999.0,  999.0,   39.8,   20.2,    2.6,  -23.5,   -1.0,   -0.3,  999.0,  -18.3,   42.5,  -21.3,   10.0,   18.7,  999.0,   -0.8,   42.1,   21.0,   20.2,   42.0,   42.0,   -1.0,   20.1,   41.8,  999.0,   12.5,   15.1,   -4.1,    5.2,   13.0,   10.3,   41.5,   20.9,   -0.2,  -11.0,   20.9,   -0.1,   20.8
2000/11/28 11:00,  999.0,    0.9,    1.2,    3.1,    1.7,    2.5,    2.4,    3.0,    4.2,    6.6,    8.6,  999.0,  999.0,  999.0,  999.0,  999.0,   26.0,   14.4,   22.1,   22.3,  999.0,   17.3,   12.4,    5.7,   -9.7,   -4.4,  999.0,  999.0,    0.4,  999.0,    0.4,    0.7,    1.0,    0.6,    1.0,    5.5,  -40.8,  -10.1,    1.1,    1.5,    0.3,    5.9,   -2.5,    9.0,  -41.9,    0.8,    1.0,    6.3,   19.9,    0.5,   10.0,    0.8,  -19.2,  -11.0,   11.1,    0.1,   10.7,    0.5
2000/11/28 11:10,  999.0,    1.8,    2.3,    3.8,    3.5,    2.5,    2.0,    4.7,    9.0,    6.6,    9.8,    3.4,    3.8,    3.4,  999.0,  999.0,  999.0,  999.0,  999.0,  999.0,  999.0,  999.0,  999.0,   -3.6,   -2.2,   -2.2,  999.0,   -0.9,   -1.3,  999.0,   -1.5,   11.1,  999.0,   10.0,  999.0,  999.0,  999.0,  999.0,  999.0,  999.0,  999.0,  999.0,    6.3,    6.2,    5.7,    5.3,  -16.7,    4.7,  999.0,   -6.9,    4.1,   -8.1,   -8.2,  999.0,  999.0,    1.7,  999.0,  -42.2
2000/11/28 11:20,  999.0,  999.0,    1.7,    4.5,    6.8,    3.6,  999.0,  999.0,    0.4,    0.6,    2.2,    3.4,    3.8,    4.1,    3.3,    8.5,  999.0,   26.1,   28.5,   30.0,   32.1,   34.6,   31.7,  999.0,    6.5,    5.6,    5.4,    6.0,   15.2,   13.3,   18.1,    1.4,    1.6,    4.1,    6.4,   11.8,  999.0,  999.0,   14.2,  999.0,  999.0,  999.0,  999.0,  999.0,  999.0,  999.0,  999.0,  999.0,  999.0,  999.0,  999.0,  999.0,  999.0,  999.0,  999.0,  999.0,  999.0,  999.0
2000/11/28 11:30,  999.0,    6.8,    4.9,    2.9,    2.2,    1.0,   -1.0,    1.8,   -0.8,    3.2,   -1.4,    1.0,    1.3,    1.8,    9.4,   11.0,    9.2,    3.6,   -0.5,    2.7,    3.9,    4.3,    1.6,    5.7,    4.4,    8.3,   10.5,   10.8,    9.2,   11.1,   13.7,   11.9,   13.0,   13.5,   16.9,   24.4,   26.0,   15.1,   17.7,   17.7,   17.7,   17.0,    4.5,  999.0,    6.9,    4.8,    6.4,    8.5,    9.1,  999.0,    9.5,   13.9,    8.9,    7.4,  999.0,  999.0,  999.0,  999.0
2000/11/28 11:40,  999.0,    8.2,    7.3,    7.0,    7.1,    7.2,    7.0,    8.4,    7.6,    6.3,    5.5,    6.1,    5.4,    3.7,    3.2,    5.9,    5.6,    5.9,    3.8,    2.6,    2.9,    5.2,    5.3,    6.1,    5.0,    4.8,    4.4,    3.0,    2.0,    3.4,    3.5,    4.8,    4.6,    4.7,    4.9,    5.8,    7.0,    6.7,    6.2,    6.0,    5.5,    6.4,    6.0,    6.3,    5.7,    5.8,    7.3,    8.0,    8.8,    8.5,    7.6,    6.4,    7.0,    7.5,   10.2,    8.0,  999.0,  999.0
2000/11/28 11:50,  999.0,    8.8,    9.7,   10.1,   10.3,   10.9,   11.8,   11.7,   11.1,   11.2,   11.5,   11.8,   12.1,   11.6,   11.0,   10.2,    9.9,   10.0,    9.4,    8.8,    7.1,    6.3,    8.1,    7.0,    7.8,    8.8,    9.0,    6.8,    6.1,    6.6,    8.3,    8.7,    8.7,    9.3,    8.2,    9.7,    9.9,    8.6,    9.2,    9.0,    8.4,    8.4,    7.5,    6.9,    7.0,    6.8,    7.8,    6.8,    8.2,    7.9,    7.9,    8.1,    8.2,    8.3,    8.2,    7.5,    7.8,    9.2
2000/11/28 12:00,  999.0,    9.9,   11.5,   11.7,   10.2,   10.8,   11.6,   12.8,   12.8,   12.9,   11.6,   10.3,   10.1,   10.5,   10.2,   10.1,    8.8,    8.1,    7.1,    6.0,    6.0,    6.3,    6.6,    6.7,    7.4,    8.2,    7.9,    8.0,    8.9,    9.4,   11.0,   11.8,   12.6,   12.4,   12.2,   12.2,   12.4,   12.5,   12.4,   11.4,   11.1,   12.0,   13.2,   15.1,   16.9,   15.8,   14.9,   15.2,   15.1,   15.2,   15.3,   15.0,   10.4,    9.9,    9.3,    9.4,    8.4,    9.7
2000/11/28 12:10,  999.0,    5.6,    5.9,    6.7,    7.5,    7.6,    7.3,    7.9,    8.7,    9.6,   10.5,   10.6,   10.6,   11.2,   12.3,   13.1,   13.4,   14.7,   14.6,   14.0,   14.8,   13.2,   12.9,   14.4,   13.0,   11.4,   11.3,    8.0,    8.9,    5.2,    3.3,    5.1,    4.0,    5.0,    5.7,    6.2,    8.6,    9.8,    9.8,    9.1,    9.8,    8.3,    8.4,    9.2,    9.9,   11.2,   12.1,   12.3,   12.4,   12.3,   13.0,   12.9,   13.1,   13.8,   14.5,   12.7,   12.3,   11.4
2000/11/28 12:20,  999.0,   17.7,   19.8,   17.6,   27.9,    7.2,    9.1,  999.0,   19.6,   29.9,   30.9,  999.0,  999.0,  999.0,  999.0,  999.0,  999.0,  999.0,  999.0,  999.0,   -0.5,  999.0,   -0.3,  999.0,  999.0,   -1.3,  999.0,   -0.6,   -0.2,   -0.8,   -2.1,   -1.6,   -0.4,   -0.9,  999.0,  999.0,  999.0,  999.0,   15.3,   18.0,   20.8,    9.3,   15.2,   10.7,   11.3,    9.2,   14.7,    9.6,   13.3,   22.5,   21.2,   19.6,   27.5,   27.8,   28.6,   30.1,   25.7,   27.5
2000/11/28 12:30,   14.7,   24.5,   11.2,    6.5,    5.1,    5.8,  999.0,    8.8,    8.5,   12.9,   15.1,   31.5,  999.0,   40.6,   41.5,  999.0,   41.3,   41.6,   41.8,   41.7,   41.6,   41.3,   41.3,   41.9,   41.6,  999.0,  999.0,  999.0,  999.0,  999.0,  999.0,  999.0,  999.0,  999.0,  999.0,  999.0,    3.9,   -0.6,   -0.8,   -0.5,  999.0,   -0.7,  999.0,   -0.9,  999.0,  999.0,  999.0,  999.0,  999.0,  999.0,  999.0,  999.0,  999.0,   27.8,   28.4,   29.9,   27.7,   27.7
2000/11/28 12:40,  999.0,    5.9,    7.0,    0.1,    2.0,   -0.1,    3.8,    7.6,    9.4,   12.4,   16.0,  999.0,  999.0,  999.0,   41.5,  999.0,   41.6,  999.0,   41.9,   41.6,   41.5,   41.4,   41.4,  999.0,  999.0,  999.0,   -0.8,  999.0,   -1.2,   25.4,   41.8,  999.0,  999.0,  999.0,   -0.4,    0.0,   -0.9,  999.0,  999.0,  999.0,  999.0,  999.0,  999.0,  999.0,  999.0,  999.0,  999.0,  999.0,  999.0,  999.0,  999.0,  999.0,  999.0,  999.0,  999.0,  999.0,  999.0,  999.0
2000/11/28 12:50,  999.0,    0.4,    1.8,    4.8,    0.9,    4.0,    5.6,    7.8,    7.3,    9.5,    8.8,   10.0,   10.0,   20.3,   22.7,   26.8,  999.0,   23.2,   23.0,   21.4,   21.2,   21.0,   20.7,   22.7,    4.7,   29.4,   25.3,   15.3,   15.4,   21.5,   32.7,  999.0,   29.3,  999.0,   35.1,  999.0,  999.0,  999.0,  999.0,  999.0,  999.0,  999.0,   41.6,  999.0,  999.0,   41.8,  999.0,  999.0,  999.0,  999.0,  999.0,   41.1,  999.0,  999.0,  999.0,  999.0,  999.0,  999.0
2000/11/28 13:00,  999.0,    2.3,    2.4,    3.0,    3.7,    3.9,    3.7,    5.5,    6.4,    7.5,    6.8,    7.6,   10.8,  999.0,   19.7,   14.9,   29.2,   27.9,  999.0,   11.8,   25.9,    7.8,    6.9,    3.7,    2.4,    3.4,    2.4,    0.6,    0.3,    0.9,    0.6,    3.1,    6.1,   12.7,   15.2,    0.8,   20.5,  999.0,    1.0,    0.9,   21.3,  999.0,    4.3,    0.8,    0.4,    0.6,    2.5,    7.5,   11.6,   38.0,   41.9,   41.6,   41.7,  999.0,  999.0,   41.9,  999.0,  999.0
2000/11/28 13:10,  999.0,    0.8,    3.2,    2.0,    3.6,    5.3,    5.7,    5.8,    7.1,    7.2,    7.4,    7.8,    9.6,  999.0,   18.9,   16.1,   15.6,   13.5,   12.0,   10.5,  999.0,    6.7,    4.8,  999.0,    2.3,    0.2,   18.7,    0.9,    0.7,   13.9,  999.0,   12.8,   15.8,    5.2,    0.2,    0.8,   17.7,  999.0,  999.0,    0.2,    0.5,  -40.7,  999.0,    0.7,  999.0,    0.9,    0.7,  999.0,    1.3,    1.2,    1.5,    0.8,    0.6,  999.0,  999.0,  999.0,  999.0,    0.8
2000/11/28 13:20,  999.0,    4.6,    5.0,    6.6,    7.0,    7.4,    5.6,    5.9,    6.4,    6.4,    7.6,  999.0,    8.0,    9.3,  999.0,  999.0,   27.6,  999.0,   31.8,   33.9,   36.5,  999.0,   40.5,  999.0,   41.8,   42.1,  999.0,   42.0,  999.0,  999.0,  999.0,   30.3,  999.0,  999.0,  999.0,  999.0,  999.0,  999.0,  999.0,  999.0,  999.0,   -1.0,  999.0,  999.0,  999.0,  999.0,  999.0,  999.0,  999.0,  999.0,  999.0,  999.0,  999.0,  999.0,  999.0,  999.0,   -0.9,  999.0
2000/11/28 13:30,  -18.2,   -3.0,    1.5,    2.4,    5.2,    0.6,   -0.8,    3.1,    3.8,    4.3,    5.3,    3.0,    5.6,    5.0,    5.0,    1.9,    7.8,    8.0,    9.1,    7.9,    2.9,  999.0,    7.5,  999.0,  999.0,  999.0,  999.0,  999.0,  999.0,  999.0,  999.0,  999.0,  999.0,  999.0,    1.1,  999.0,  999.0,  999.0,   41.4,  999.0,  999.0,  999.0,   24.9,  999.0,  999.0,    5.5,  -41.6,  999.0,   12.2,   42.1,  999.0,   42.7,   -0.1,   42.4,  999.0,  999.0,  -41.7,  -41.4
2000/11/28 13:40,   -0.1,    5.3,   13.1,   10.0,   10.4,   14.2,   14.0,   16.0,   16.2,   22.1,   26.7,   20.3,   12.1,   12.6,   16.5,  999.0,  999.0,  999.0,  999.0,   21.0,   21.0,   41.8,   42.0,   -0.7,   29.9,   21.2,   41.6,  999.0,  999.0,   -0.2,  -21.0,  -11.1,   -0.3,   -0.2,  -21.8,   -6.5,   19.7,   20.3,  999.0,  999.0,  999.0,  999.0,   42.0,   13.5,    6.7,   11.4,   20.1,  -13.9,   12.3,   -6.9,   19.7,   -5.3,    0.2,    0.4,   21.4,   -0.1,   -0.1,    0.3
2000/11/28 13:50,  999.0,    3.8,    5.4,    5.0,    5.0,    4.8,    5.1,    5.9,    5.3,    5.4,    7.0,    7.6,    9.0,   12.0,   17.4,   15.1,   -2.0,    3.9,    1.5,    3.0,    3.9,   25.1,    7.8,   -0.9,   -0.7,   -0.5,   41.4,   35.3,   30.7,   20.5,   -0.5,   20.8,   20.4,   -0.5,   -0.9,   -0.5,   -0.8,   -0.8,   -0.3,  999.0,  999.0,  999.0,   -1.2,   -0.8,   -0.6,   -0.9,   -0.9,   -0.6,   -0.9,   -0.5,   13.7,   -0.5,   -0.1,   20.6,   13.2,   -0.5,   -0.8,   13.3
2000/11/28 14:00,  999.0,    3.2,    4.5,    5.8,    3.8,    3.5,    3.8,    5.9,    6.8,    7.8,   12.8,   14.4,   13.2,   15.4,   16.6,   20.9,   16.5,    6.5,    7.0,    8.9,   32.3,  999.0,    4.7,   17.8,   17.3,   24.5,   15.5,   29.3,  999.0,   24.6,   49.6,    1.1,   10.7,    0.7,    0.5,    1.2,    0.8,    1.9,    1.2,    1.2,    3.0,    4.8,    5.2,    7.2,   12.8,   10.6,    7.4,    6.3,   -0.4,    5.0,   14.8,   -1.1,   -0.9,    4.2,   -0.3,   -1.0,   -1.0,   -0.3
2000/11/28 14:10,  999.0,    2.7,    3.3,    3.9,    2.9,    4.3,    5.3,    6.0,    6.9,    7.6,    7.9,    6.6,    9.3,    9.7,    8.5,    7.3,    8.6,    9.0,    9.5,    9.8,    9.9,    9.5,    9.6,    9.5,   11.8,  999.0,   10.9,    9.3,    8.8,    7.8,    9.9,    6.1,  -10.0,   -9.5,   -8.3,   -7.8,    4.6,    7.8,    4.5,    5.6,    4.6,    6.2,    8.1,    9.6,   13.3,    8.4,  999.0,  999.0,  999.0,  999.0,  999.0,   16.6,   17.7,   18.6,  999.0,  999.0,  999.0,  999.0
2000/11/28 14:20,  999.0,    3.3,    3.5,    4.4,    5.4,    6.1,    6.8,    7.6,    8.9,    9.7,   11.1,   11.0,   11.7,   12.1,   12.4,   14.1,   14.9,   15.9,   17.2,   18.2,   20.2,   19.6,   16.6,   15.5,   16.5,   14.2,    5.0,   12.8,    9.6,   12.1,   10.0,   10.8,    3.3,  999.0,   10.9,    0.3,    0.7,  999.0,    6.8,   14.0,   12.7,  999.0,   22.1,   24.6,   12.5,   -0.4,   -0.2,   -1.2,  999.0,  999.0,  999.0,  999.0,  999.0,  999.0,  999.0,  999.0,  999.0,  999.0
2000/11/28 14:30,    4.4,    3.1,    3.3,    4.1,    5.1,    5.9,    7.0,    7.9,    8.5,    8.9,    9.2,    9.5,    9.9,   10.3,   10.5,   10.9,   11.7,   12.2,   13.2,   13.5,   13.6,   13.0,   14.5,   15.7,   14.7,   14.1,   12.7,   14.2,   14.2,   14.9,   14.3,   14.5,   15.4,   13.8,   12.6,   10.9,   11.2,   12.8,   14.5,   20.5,  999.0,  999.0,   21.7,   20.7,   24.3,   23.5,   26.0,   25.0,  999.0,   27.4,   27.6,   26.2,   25.7,   24.3,   24.7,   24.4,   24.2,   29.4
2000/11/28 14:40,  999.0,    3.0,    3.3,    3.7,    6.3,    7.0,    9.3,   10.1,   11.5,   12.8,   14.9,   15.8,   15.5,   16.1,   16.5,   17.3,   17.8,   18.5,   16.7,   17.5,   19.3,   19.1,   20.1,   20.6,   20.9,   -0.5,   -1.2,    6.6,    9.8,   21.0,   20.8,    9.9,    8.9,   -0.4,   -1.2,   -1.1,   -0.6,   -1.2,   -0.8,   -0.9,  999.0,  999.0,   15.1,   -0.6,  999.0,  999.0,  999.0,   19.2,   17.1,   15.4,   16.0,   16.1,   13.7,   12.5,   12.8,   10.4,    7.6,    6.8
2000/11/28 14:50,  999.0,    4.2,    4.7,    4.5,    4.6,    6.0,    8.2,    9.4,   11.6,   11.3,   10.9,    7.8,   16.9,   19.6,   22.9,   30.7,   27.5,  999.0,   32.9,   26.5,  999.0,  999.0,   -0.5,   -1.1,   -1.1,  999.0,   -0.8,   -0.8,   -1.2,   -0.7,   -1.0,  999.0,  999.0,   41.9,  999.0,   42.0,   20.5,   -1.7,   19.0,   18.9,   18.8,   32.5,  999.0,   41.7,   16.3,   41.6,   41.7,   41.4,  999.0,   15.7,   13.8,   13.6,   17.6,   16.0,   15.8,   14.3,   13.6,   13.1
2000/11/28 15:00,  999.0,    4.0,    5.5,    5.0,    3.2,    6.3,   10.6,   16.5,   14.1,   11.8,   16.8,   17.4,   32.2,   27.9,  999.0,   40.7,  999.0,  999.0,   42.1,  999.0,   36.9,   36.7,  999.0,   28.7,   28.6,   33.2,  999.0,  999.0,  999.0,  999.0,  999.0,   41.9,  999.0,   41.8,   42.6,   42.3,   20.5,  999.0,    0.3,   16.1,   41.9,   13.0,   42.0,  999.0,   21.1,   26.9,   20.9,   23.9,   41.6,  999.0,  999.0,  999.0,  -14.4,  -14.5,  -14.9,  -15.1,  -14.6,  -16.3
2000/11/28 15:10,  999.0,    6.1,    5.7,    5.9,    6.5,    8.5,    9.2,   10.5,   14.4,   15.4,   19.1,   19.8,   18.5,   22.4,   12.6,   14.4,   23.8,   14.8,   25.7,   29.1,   16.4,   29.3,   29.4,   21.8,   22.2,   14.2,   12.6,   15.3,   18.6,   15.3,   15.8,    4.9,    5.1,   25.3,   25.9,   17.3,   10.9,    6.1,    6.5,   -0.5,   -0.3,   -0.6,   -1.0,   -0.2,  999.0,  -41.2,  -42.2,  999.0,   -0.5,  999.0,  999.0,  999.0,  999.0,   -0.6,  999.0,   -1.4,  999.0,   -1.0
2000/11/28 15:20,  999.0,    3.3,    4.6,    6.1,    5.4,    8.1,    8.6,    8.6,    8.7,    8.3,    7.3,    8.0,    9.4,    9.0,    9.4,    9.7,    9.9,    9.9,   11.0,   12.1,   12.2,   10.9,   12.9,   12.0,   13.8,   14.0,   12.6,   12.1,   11.7,   11.3,   11.9,   12.3,   13.6,   14.5,   15.5,   17.3,   18.3,   19.0,   19.2,   20.7,   21.2,   19.7,  999.0,   19.9,   21.1,   20.8,   22.8,  999.0,  999.0,  999.0,   -0.7,   -0.6,   -0.8,   -0.8,   -1.1,  999.0,   -0.6,   -0.4
2000/11/28 15:30,   11.5,   13.6,   14.7,   13.7,    7.7,   11.1,   11.6,   11.4,   10.8,   13.5,   10.0,   10.2,   12.7,   13.4,   14.0,   13.9,   14.4,   16.0,   15.7,   15.6,   15.2,   15.7,   16.3,   11.7,   12.3,   11.2,   10.2,   13.9,   12.9,   13.3,   13.2,   13.5,   11.7,   14.4,   14.4,   16.7,   15.4,   17.4,   18.1,   19.6,   21.4,   21.6,   23.7,   23.4,  999.0,   27.7,  999.0,  999.0,  999.0,  999.0,   41.9,  999.0,   41.8,   41.0,   41.0,   40.8,   41.2,   42.0
2000/11/28 15:40,  999.0,  999.0,    8.7,    9.5,    9.8,  999.0,  999.0,  999.0,  999.0,  999.0,   11.6,   15.5,   16.9,   19.8,   21.7,   24.5,  999.0,    5.9,  999.0,   10.1,  999.0,  999.0,   18.8,   17.2,   16.9,   16.1,   14.8,   15.2,   16.2,   14.5,   12.1,   12.4,   13.1,   12.6,   11.3,   11.8,   11.5,   11.9,   12.8,   12.5,   13.3,   14.2,   15.0,   16.3,   16.4,   11.3,  999.0,   25.1,  999.0,  999.0,  999.0,  999.0,  999.0,  999.0,  999.0,  999.0,  999.0,  999.0
2000/11/28 15:50,  999.0,    7.5,    8.7,    9.8,    9.8,   10.9,   11.5,   10.9,    9.0,    9.4,   11.1,   12.6,   13.1,   14.8,   15.1,   17.4,   18.2,   18.5,   20.0,   23.6,   26.4,  999.0,   19.8,   21.6,   32.6,  999.0,  999.0,  999.0,  999.0,  999.0,  999.0,   15.1,   14.4,    7.7,   17.2,   17.6,    8.9,   18.6,   19.9,  999.0,   19.3,    2.4,    3.1,    3.4,   16.4,   15.4,   15.2,   13.7,  999.0,   18.5,  999.0,  999.0,  999.0,  999.0,  999.0,  999.0,  999.0,  999.0
2000/11/28 16:00,  999.0,    5.7,    7.3,    8.5,    9.6,   10.3,   11.1,   10.9,   10.1,    9.9,    9.4,   10.7,   11.7,   12.0,   13.3,   13.7,   15.0,   16.3,   16.6,   17.0,   19.2,   20.4,   22.1,   18.2,   19.3,   18.7,   18.4,   16.4,   13.9,   12.8,   11.5,   11.6,   10.0,    9.7,    6.6,    4.1,    5.2,    7.5,    6.9,    7.8,    8.1,    8.0,    7.8,    7.6,    8.0,    8.3,    8.0,    7.4,    7.0,    8.1,    8.6,    9.2,    9.9,   11.0,   12.2,  999.0,   17.4,   20.3
2000/11/28 16:10,  999.0,    5.1,    6.4,    7.8,    9.1,    9.4,    9.2,    9.9,   10.9,   10.5,    9.7,    9.1,    8.8,    9.5,   10.6,   12.2,   13.4,   14.8,   16.3,   17.4,   20.7,   20.4,   23.0,   23.5,   19.8,   19.0,   18.3,   17.4,   16.0,   14.5,   14.1,   12.5,   12.0,   16.1,   16.6,   12.4,   10.1,   16.3,   13.6,    8.3,    7.9,   12.5,   13.1,   14.5,   15.2,   17.3,    9.7,   14.4,    8.1,    7.9,   15.0,    9.5,   17.2,   12.1,   13.0,   13.6,   14.2,  999.0
2000/11/28 16:20,  999.0,  999.0,  999.0,    8.8,   10.0,    9.9,   11.3,   11.4,   10.1,    9.2,    8.5,    8.0,    6.5,    7.5,    9.7,   11.5,   12.3,   13.4,   14.5,   15.9,   18.8,   20.1,   21.6,   20.0,   20.6,   20.0,   19.9,   20.9,  999.0,  999.0,  999.0,  999.0,   20.7,  999.0,   16.3,   15.9,   18.0,   18.7,   19.1,   21.4,   22.7,   22.4,   22.3,   24.0,   23.0,   25.0,   26.3,   23.6,   23.3,   23.9,   23.2,   25.1,   26.5,   28.1,   27.4,   29.1,   27.6,   28.0
2000/11/28 16:30,  999.0,    9.4,   12.0,   10.4,  999.0,    9.7,   12.4,  999.0,  999.0,  999.0,  999.0,  999.0,  999.0,  999.0,  999.0,  999.0,  999.0,  999.0,  999.0,  999.0,  999.0,  999.0,  999.0,  999.0,  999.0,  999.0,  999.0,  999.0,  999.0,  999.0,  999.0,  999.0,  999.0,  999.0,  999.0,  999.0,  999.0,  999.0,  999.0,  999.0,  999.0,  999.0,  999.0,    5.4,    6.7,    8.6,   10.0,   10.9,   11.2,   10.9,   10.1,   11.1,   11.2,   11.1,   11.0,   10.2,   10.5,    9.9
2000/11/28 16:40,  999.0,    6.8,  999.0,  999.0,  999.0,   10.3,   12.0,   13.7,   14.1,  999.0,  999.0,  999.0,   20.6,  999.0,  999.0,   22.2,   23.3,   22.5,  999.0,  999.0,   23.6,   23.5,  999.0,   23.2,   22.7,  999.0,   23.8,   24.8,  999.0,   23.5,  999.0,   24.6,   23.4,  999.0,   24.4,  999.0,  999.0,  999.0,   26.1,   26.1,  999.0,  999.0,  999.0,  999.0,  999.0,  999.0,  999.0,  999.0,  999.0,   15.1,   13.0,   13.8,   14.9,   15.4,   14.9,   14.4,   14.8,   13.3
2000/11/28 16:50,  999.0,    7.2,    9.4,    7.3,    7.5,   11.5,   13.0,   15.6,  999.0,  999.0,  999.0,  999.0,  999.0,  999.0,   20.9,  999.0,  999.0,  999.0,   22.0,   22.7,  999.0,  999.0,   22.7,  999.0,  999.0,  999.0,  999.0,  999.0,  999.0,  999.0,   24.5,  999.0,   24.9,   25.1,  999.0,  999.0,  999.0,  999.0,  999.0,  999.0,  999.0,  999.0,  999.0,  999.0,  999.0,  999.0,   11.8,   10.1,   10.8,   12.5,   13.4,   14.2,   14.8,   15.0,   14.3,   13.6,   12.9,   11.9
2000/11/28 17:00,  999.0,    8.9,    8.8,   11.1,  999.0,   13.3,   15.3,  999.0,  999.0,  999.0,  999.0,  999.0,  999.0,   20.7,  999.0,   21.9,  999.0,  999.0,   22.0,   22.2,   22.0,   23.0,   22.8,   23.1,   23.2,  999.0,   22.7,   23.1,   23.4,   22.8,   23.0,   23.4,   24.2,   23.3,   23.8,   24.0,   24.1,   24.2,   23.6,   24.3,  999.0,  999.0,  999.0,  999.0,  999.0,  999.0,    4.0,    8.2,    8.9,   11.3,   10.9,   12.6,   13.5,   13.5,   14.0,   13.6,   13.0,   12.1
2000/11/28 17:10,  999.0,    8.9,    9.0,   11.3,   13.5,   16.3,   16.7,  999.0,  999.0,  999.0,  999.0,  999.0,   21.2,   21.5,   21.0,   21.7,   20.9,   21.9,   21.9,  999.0,   21.5,   22.4,   22.2,  999.0,   23.1,   21.9,   23.3,   23.2,  999.0,  999.0,  999.0,   21.3,   20.4,  999.0,  999.0,   21.1,  999.0,   21.3,   21.9,   22.7,  999.0,  999.0,  999.0,  999.0,  999.0,  999.0,  999.0,  999.0,    8.0,    9.8,   10.2,   12.0,   13.4,   14.1,   14.1,   12.1,   11.0,   10.5
2000/11/28 17:20,  999.0,    8.7,    9.5,   10.6,   11.6,   14.8,  999.0,  999.0,  999.0,  999.0,  999.0,   20.9,   21.7,  999.0,  999.0,   21.2,  999.0,  999.0,  999.0,   21.2,   21.0,   21.5,   22.2,   22.0,   21.7,   22.5,   22.5,   23.1,   23.0,   23.1,   22.7,   23.1,   23.5,   24.0,  999.0,   24.3,  999.0,  999.0,   25.1,  999.0,  999.0,  999.0,  999.0,  999.0,  999.0,  999.0,  999.0,  999.0,    9.1,   10.1,   11.8,   13.9,  999.0,  999.0,  999.0,  999.0,  999.0,  999.0
2000/11/28 17:30,  999.0,   10.0,   11.0,   12.8,   14.4,  999.0,   16.0,   21.4,   21.1,   21.2,  999.0,   20.8,   21.1,   21.1,  999.0,   21.6,  999.0,  999.0,  999.0,  999.0,  999.0,  999.0,  999.0,  999.0,  999.0,  999.0,  999.0,  999.0,  999.0,  999.0,  999.0,  999.0,  999.0,  999.0,  999.0,  999.0,  999.0,  999.0,  999.0,  999.0,  999.0,  999.0,  999.0,  999.0,  999.0,  999.0,  999.0,  999.0,  999.0,  999.0,  999.0,  999.0,  999.0,  999.0,  999.0,  999.0,  999.0,  999.0
2000/11/28 17:40,  999.0,  999.0,   10.3,   18.0,  999.0,  999.0,  999.0,   21.4,   21.4,   20.9,   21.2,   21.2,   21.0,  999.0,   21.5,   21.0,  999.0,   21.3,  999.0,  999.0,  999.0,  999.0,  999.0,  999.0,  999.0,  999.0,  999.0,  999.0,  999.0,  999.0,  999.0,  999.0,  999.0,  999.0,  999.0,  999.0,  999.0,  999.0,  999.0,  999.0,  999.0,  999.0,  999.0,  999.0,  999.0,  999.0,  999.0,  999.0,  999.0,  999.0,  999.0,  999.0,  999.0,  999.0,  999.0,  999.0,  999.0,  999.0
2000/11/28 17:50,  999.0,    9.6,   12.8,  999.0,  999.0,   21.4,   21.2,   20.4,   21.0,   21.4,   21.4,   21.1,   21.0,   21.5,   22.4,   22.3,   22.4,   23.1,   23.8,   24.2,   25.5,   25.8,  999.0,   28.3,   27.5,   28.7,   28.6,   28.7,   29.7,   29.9,   31.3,   32.5,   32.3,   32.8,  999.0,   35.2,   34.6,   35.3,   36.9,   36.8,   37.8,   38.1,   39.0,   39.4,   39.3,   40.8,   39.8,   40.4,   40.0,   40.1,   42.6,   42.7,   21.0,   22.4,  999.0,   41.3,   41.7,   41.4
2000/11/28 18:00,  999.0,   20.6,  999.0,  999.0,  999.0,  999.0,   21.0,   20.8,   21.9,   21.3,   20.7,   20.3,   21.1,   21.4,   21.9,   22.9,   23.6,   24.0,   24.7,  999.0,   26.6,   26.1,   27.1,   27.8,   28.8,   28.9,   29.8,   29.6,  999.0,   31.5,   32.1,   32.2,  999.0,   33.8,   34.9,   34.5,   34.6,  999.0,   35.5,   36.5,  999.0,   39.9,   39.6,   41.8,   38.0,   40.3,   41.0,   40.8,   40.9,   41.0,   41.5,   41.7,   41.8,   41.8,  999.0,   41.3,   41.9,   41.6
2000/11/28 18:10,  999.0,  999.0,  999.0,  999.0,  999.0,  999.0,  999.0,  999.0,  999.0,  999.0,  999.0,  999.0,   21.0,   20.9,   20.5,   20.7,  999.0,  999.0,  999.0,  999.0,  999.0,  999.0,  999.0,  999.0,  999.0,  999.0,  999.0,  999.0,  999.0,  999.0,  999.0,  999.0,  999.0,  999.0,  999.0,  999.0,  999.0,  999.0,  999.0,  999.0,  999.0,  999.0,  999.0,  999.0,  999.0,  999.0,  999.0,  999.0,  999.0,  999.0,  999.0,  999.0,  999.0,  999.0,  999.0,  999.0,  999.0,  999.0
2000/11/28 18:20,  999.0,  999.0,  999.0,  999.0,  999.0,  999.0,   20.5,   22.0,   21.3,   21.3,   20.8,   21.1,   21.3,   20.5,   20.9,   22.4,   22.7,  999.0,   24.3,   26.6,   26.5,   28.1,   27.4,   28.7,   28.3,   32.0,  999.0,   31.9,   33.6,   33.4,   31.9,   33.1,   36.1,   35.4,   35.9,   38.0,  999.0,  999.0,  999.0,  999.0,  999.0,  999.0,  999.0,  999.0,  999.0,  999.0,  999.0,  999.0,  999.0,  999.0,  999.0,  999.0,  999.0,  999.0,  999.0,  999.0,  999.0,  999.0
2000/11/28 18:30,  999.0,  999.0,  999.0,  999.0,  999.0,  999.0,   21.1,   20.2,   21.7,   21.1,   21.2,   21.7,   21.6,  999.0,   23.4,   24.0,   25.7,   25.6,   26.7,   27.6,   28.5,   29.5,   30.1,  999.0,   31.2,   32.1,   33.6,   33.5,   34.9,   35.5,   36.7,  999.0,  999.0,  999.0,   39.6,  999.0,  999.0,  999.0,  999.0,  999.0,  999.0,  999.0,  999.0,  999.0,  999.0,  999.0,  999.0,  999.0,  999.0,  999.0,  999.0,  999.0,  999.0,  999.0,  999.0,  999.0,  999.0,  999.0
2000/11/28 18:40,  999.0,  999.0,  999.0,  999.0,  999.0,  999.0,  999.0,  999.0,   21.2,   21.7,   21.5,   20.1,   21.0,   21.0,   21.0,  999.0,   22.0,  999.0,   24.1,   25.7,   26.5,   27.6,   28.6,   29.6,   30.7,   31.4,   32.7,   33.5,   34.4,   34.8,   36.6,   38.0,  999.0,   39.9,   40.3,   42.2,   42.2,  999.0,  999.0,  999.0,  999.0,  999.0,  999.0,  999.0,  999.0,  999.0,  999.0,  999.0,  999.0,  999.0,  999.0,  999.0,  999.0,  999.0,  999.0,  999.0,  999.0,  999.0
2000/11/28 18:50,  999.0,  999.0,  999.0,  999.0,  999.0,  999.0,    5.0,    7.3,  999.0,   -0.2,   -2.5,   -0.3,   -1.3,    0.7,   13.9,   21.3,  999.0,   22.5,   22.9,  999.0,   28.5,   27.1,   28.4,   31.6,   30.2,   32.6,   30.1,  999.0,   31.3,   32.3,   35.0,  999.0,   36.8,   39.8,  999.0,  999.0,  999.0,   39.5,  999.0,  999.0,  999.0,  999.0,  999.0,  999.0,  999.0,  999.0,  999.0,  999.0,  999.0,  999.0,  999.0,  999.0,  999.0,  999.0,  999.0,  999.0,  999.0,  999.0
2000/11/28 19:00,  999.0,    2.7,    4.7,    0.4,    4.2,   11.1,    5.0,    7.4,    7.8,    4.3,    7.0,   10.0,    6.3,   10.3,    2.0,   10.8,  999.0,  999.0,  999.0,  999.0,  999.0,  999.0,  999.0,  999.0,    0.7,  999.0,  999.0,  999.0,  999.0,  999.0,  999.0,  999.0,  999.0,  999.0,  999.0,    0.6,  999.0,  999.0,  999.0,  999.0,  999.0,  999.0,    0.5,  999.0,    0.2,  999.0,    0.2,  999.0,  999.0,  999.0,    0.9,  999.0,  999.0,    0.7,  999.0,  999.0,    1.6,  999.0
2000/11/28 19:10,  999.0,    7.5,    6.9,    6.9,    1.0,    2.8,    9.1,    1.6,    2.2,    7.8,    7.5,    5.9,    4.6,    5.3,    5.4,    8.3,   16.6,   15.0,   20.5,  999.0,  999.0,  999.0,  999.0,  999.0,  999.0,  999.0,  999.0,  999.0,  999.0,  999.0,  999.0,  999.0,  999.0,  999.0,  999.0,  999.0,  999.0,  999.0,  999.0,  999.0,  999.0,  999.0,  999.0,  999.0,  999.0,  999.0,  999.0,  999.0,  999.0,  999.0,  999.0,  999.0,  999.0,  999.0,  999.0,  999.0,  999.0,  999.0
2000/11/28 19:20,  999.0,  999.0,   -0.9,    3.2,   -8.0,  999.0,    0.4,    3.0,   -0.0,    2.8,    2.6,    3.9,    3.1,   10.3,    5.2,   19.3,   22.0,  999.0,  999.0,  999.0,  999.0,  999.0,    7.1,  999.0,  999.0,  999.0,  999.0,  999.0,  999.0,    0.3,    0.2,    1.2,    0.9,  999.0,  999.0,  999.0,  999.0,    0.4,    0.6,  999.0,  999.0,    0.6,  999.0,  999.0,  999.0,    1.2,  999.0,  999.0,   -0.2,  999.0,    0.5,  999.0,    0.4,    0.3,  999.0,  999.0,  999.0,    0.2
2000/11/28 19:30,  999.0,    0.5,    0.4,   -3.4,   -1.0,    3.7,    4.3,   -1.5,    9.3,    9.3,    5.1,   -1.3,    2.3,  999.0,    9.5,  999.0,  999.0,  999.0,  999.0,  999.0,  999.0,  999.0,  999.0,  999.0,  999.0,  999.0,  999.0,    5.8,    5.5,   14.6,    8.9,    8.4,   11.4,    5.4,    6.2,    5.2,    2.5,  999.0,    3.3,  999.0,  999.0,    1.2,    1.0,    0.5,  999.0,  999.0,    0.6,    0.1,  999.0,  999.0,  999.0,  999.0,  999.0,  999.0,    0.5,    0.4,    1.2,    0.2
2000/11/28 19:40,  999.0,    0.0,    4.4,    1.7,  999.0,  999.0,  999.0,  999.0,    8.1,    1.6,    1.8,   -1.9,  999.0,    0.6,  999.0,  999.0,  999.0,   -3.3,  999.0,  999.0,  999.0,  999.0,  999.0,  999.0,  999.0,  999.0,  999.0,    4.5,    3.1,    0.5,   10.2,    0.5,    7.8,    3.7,    6.0,    5.1,    1.1,    3.2,    3.0,    1.8,    1.0,    0.8,    0.6,    0.8,    1.1,  999.0,    1.6,    1.1,    0.9,    0.4,    0.9,    1.3,    1.0,    1.1,    0.7,    0.9,    0.5,    0.1
2000/11/28 19:50,  999.0,    0.8,   -0.4,    1.2,    4.0,    7.5,    5.9,    7.4,    2.2,  999.0,  999.0,  999.0,  999.0,  999.0,   -1.9,   -3.9,   -6.2,  999.0,  999.0,  999.0,  999.0,  999.0,  999.0,  999.0,  999.0,  999.0,  999.0,  999.0,  999.0,    1.8,    0.8,  999.0,    0.6,    0.8,    0.3,  999.0,    0.5,    1.3,  999.0,    1.2,  999.0,  999.0,  999.0,  999.0,    0.9,    0.4,  999.0,    1.1,    0.4,  999.0,    0.7,    0.2,    1.2,    0.8,  999.0,  999.0,    1.4,  999.0
2000/11/28 20:00,  999.0,   12.2,  999.0,   -0.2,    3.6,  999.0,    3.3,  999.0,    0.6,    1.2,   -0.3,   -1.2,    0.7,   10.9,  999.0,  999.0,   19.8,  999.0,  999.0,  999.0,   16.2,  999.0,   15.4,  999.0,   14.4,  999.0,  999.0,  999.0,   10.9,    7.8,    8.1,    6.5,    5.9,  999.0,    5.5,  999.0,    3.8,    2.8,    2.4,    2.3,    1.6,    0.4,    0.9,    0.4,  999.0,    1.5,  999.0,  999.0,    0.7,  999.0,    0.4,    0.5,  999.0,   -0.1,  999.0,    0.5,    0.7,  999.0
2000/11/28 20:10,  999.0,  999.0,   -0.5,    2.7,    1.8,    4.9,    4.9,    1.9,    4.1,  999.0,   12.4,  999.0,  999.0,   11.2,    7.8,  999.0,  999.0,  999.0,  999.0,   15.4,  999.0,   11.3,  999.0,  999.0,    5.6,  999.0,    2.3,    0.5,  999.0,  999.0,  999.0,  999.0,  999.0,  999.0,  999.0,  999.0,  999.0,  999.0,   -0.0,  999.0,  999.0,    0.2,  999.0,  999.0,  999.0,    0.6,  999.0,    0.2,  999.0,  999.0,    0.0,  999.0,  999.0,   -0.2,  999.0,  999.0,    1.0,    0.6
2000/11/28 20:20,  999.0,    2.1,    0.6,    3.1,    2.5,  999.0,   25.4,   23.8,   19.5,  999.0,  999.0,  999.0,   21.5,  999.0,  999.0,  999.0,  999.0,  999.0,  999.0,  999.0,  999.0,  999.0,  999.0,  999.0,  999.0,  999.0,  999.0,  999.0,  999.0,  999.0,  999.0,  999.0,  999.0,  999.0,  999.0,  999.0,  999.0,  999.0,  999.0,  999.0,  999.0,  999.0,  999.0,  999.0,  999.0,  999.0,  999.0,  999.0,  999.0,  999.0,  999.0,  999.0,  999.0,  999.0,  999.0,  999.0,  999.0,  999.0
2000/11/28 20:30,  999.0,    4.1,    3.4,  999.0,  999.0,  999.0,  999.0,   21.7,  999.0,  999.0,   20.6,  999.0,   21.0,  999.0,  999.0,  999.0,  999.0,  999.0,  999.0,  999.0,    8.8,    7.1,  999.0,    4.1,  999.0,  999.0,   -0.4,  999.0,   -0.1,  999.0,  999.0,    0.1,    0.8,    0.2,  999.0,  999.0,  999.0,    0.9,    0.6,    0.0,  999.0,  999.0,    1.7,    1.0,    1.3,    1.1,  999.0,  999.0,    0.4,    0.9,    1.4,    0.1,  999.0,    1.1,  999.0,  999.0,  999.0,  999.0
2000/11/28 20:40,  999.0,    0.5,    0.1,    6.2,    7.0,    9.2,    9.4,  999.0,  999.0,  999.0,   19.4,  999.0,   20.2,  999.0,   21.1,   21.1,   22.8,   22.7,   24.0,  999.0,   23.8,   25.5,   25.9,   26.2,   28.8,   28.0,   28.9,   29.3,  999.0,   29.7,   30.5,   31.3,  999.0,   32.5,   33.2,   33.5,   34.4,  999.0,   36.0,   36.1,   36.5,  999.0,   38.2,   38.7,   38.9,   39.6,   40.1,   40.9,   41.7,   41.9,   41.6,   41.9,   42.6,   41.4,   41.5,   41.9,   43.0,   42.3
2000/11/28 20:50,  999.0,   10.5,    1.5,    3.8,    7.3,   18.1,  999.0,   10.8,   15.8,   15.3,   17.2,   16.5,   21.6,  999.0,   16.6,   21.3,   23.1,   23.8,   23.7,   24.1,  999.0,   26.9,  999.0,   33.9,   41.8,  999.0,   35.2,   42.4,   31.2,   31.1,   31.5,  999.0,   33.0,   33.9,   38.3,   38.7,  999.0,   42.0,   41.7,   39.8,   37.9,  999.0,   39.6,  999.0,   40.4,   42.1,   41.7,   42.0,   41.9,   41.7,   41.9,   41.7,   41.9,   41.7,   41.8,   41.6,  999.0,   41.4
2000/11/28 21:00,  999.0,   11.8,   13.7,   15.7,   12.8,  999.0,  999.0,   19.3,   21.3,   22.7,  999.0,   21.3,   24.3,   27.0,   25.0,   40.0,  999.0,  999.0,  999.0,  999.0,  999.0,   42.2,   39.1,  999.0,   41.0,  999.0,  999.0,   41.8,  999.0,   42.2,   42.0,  999.0,   41.5,   41.6,   41.3,  999.0,   41.5,   42.0,   42.0,   42.4,  999.0,  999.0,  999.0,   42.5,   42.5,   42.5,   42.2,  999.0,  999.0,   41.6,   42.7,  999.0,  999.0,  999.0,   42.7,   42.7,   41.7,   42.5
2000/11/28 21:10,  999.0,  999.0,   -0.1,    0.5,   -0.2,    6.3,    1.6,  999.0,  999.0,   27.7,  999.0,  999.0,   32.3,   32.8,   34.8,   31.5,   37.7,  999.0,   35.8,   36.6,   38.1,   40.8,   39.9,   41.5,  999.0,   41.7,   41.7,   41.5,   42.0,   41.3,   42.2,   41.4,   42.2,   41.3,   42.8,   41.5,   41.7,  999.0,   42.0,   41.5,   41.7,   41.2,   41.3,   41.7,   42.2,   42.3,   42.3,   42.0,   42.7,  999.0,   42.0,   41.6,  999.0,   41.8,   41.9,  999.0,   42.1,   42.5
2000/11/28 21:20,  999.0,    0.0,    0.0,   -0.4,    3.3,    3.5,    1.9,    0.6,  999.0,  999.0,  999.0,  999.0,  999.0,  999.0,  999.0,   23.6,   24.3,  999.0,   30.6,   23.2,   28.7,  999.0,   24.2,  999.0,  999.0,   42.1,   33.9,  999.0,  999.0,   28.1,  999.0,   35.7,  999.0,   41.7,  999.0,  999.0,   31.7,  999.0,  999.0,   41.6,  999.0,   35.1,   35.5,  999.0,   38.7,   37.4,   37.8,  999.0,   39.7,   39.2,   41.3,  999.0,  999.0,   40.6,  999.0,  999.0,  999.0,  999.0
2000/11/28 21:30,  999.0,    6.3,   10.2,  999.0,    8.4,    7.3,    6.8,  999.0,   12.0,  999.0,  999.0,  999.0,  999.0,  999.0,  999.0,  999.0,   30.4,   33.4,   36.4,   37.0,   39.8,   41.2,   42.0,   42.1,   43.8,   41.4,   42.2,   42.6,   42.0,   41.7,  999.0,   41.6,  999.0,   41.6,   41.0,   42.0,   42.1,   41.1,  999.0,   41.7,   41.4,   41.6,  999.0,  999.0,   42.1,   41.5,   42.0,   41.8,  999.0,   41.9,   42.1,   41.8,  999.0,   41.8,  999.0,  999.0,  999.0,   41.8
2000/11/28 21:40,  999.0,    0.4,    0.3,    0.1,    0.0,  999.0,  999.0,    3.9,    5.7,  999.0,  999.0,  999.0,  999.0,  999.0,  999.0,  999.0,   27.2,   34.9,  999.0,   40.6,   42.0,   41.5,   41.1,   41.5,   42.8,   42.6,   42.0,   41.7,   42.2,  999.0,   41.8,   41.8,   42.3,   41.9,   41.7,   40.7,   42.1,  999.0,   42.0,  999.0,   42.3,   40.7,   41.9,   41.9,   42.0,   42.7,   42.3,   42.4,   41.9,   41.9,  999.0,   42.5,   42.2,   41.6,   41.3,   41.3,   42.1,   41.6
2000/11/28 21:50,  999.0,    0.3,    0.3,    0.2,   -0.3,    0.8,    1.4,   -0.3,    0.6,   15.1,   18.9,   21.5,   22.3,  999.0,   20.5,  999.0,   36.8,  999.0,   37.7,  999.0,  999.0,   41.3,   41.7,   41.7,   41.8,   41.6,   41.3,   41.1,  999.0,   42.1,   40.7,   41.4,   41.5,  999.0,   41.9,  999.0,   41.5,   41.8,   42.3,   41.9,   41.6,  999.0,   42.4,  999.0,   41.3,   41.5,  999.0,   41.5,   41.4,   42.0,   41.8,   41.8,   41.7,   41.7,   41.2,   41.5,   41.6,   42.2
2000/11/28 22:00,  999.0,   -0.3,   -0.1,    0.8,  999.0,  999.0,    9.5,    9.3,  999.0,    9.7,   13.8,  999.0,   16.0,   19.4,   17.7,  999.0,   33.6,   35.2,  999.0,  999.0,  999.0,   42.3,   41.4,   41.6,  999.0,  999.0,   41.8,   41.9,   42.2,  999.0,   42.3,  999.0,  999.0,   41.1,  999.0,  999.0,  999.0,  999.0,  999.0,   41.3,   41.8,  999.0,   41.6,  999.0,   41.7,  999.0,  999.0,  999.0,   42.1,  999.0,   41.4,  999.0,   41.7,  999.0,  999.0,   42.3,  999.0,   41.5
2000/11/28 22:10,  999.0,    1.2,    0.9,  999.0,   -0.3,  999.0,  999.0,  999.0,  999.0,  999.0,  999.0,  999.0,   22.2,  999.0,   24.3,  999.0,  999.0,   33.6,  999.0,  999.0,   39.5,  999.0,  999.0,  999.0,  999.0,  999.0,  999.0,  999.0,  999.0,  999.0,  999.0,  999.0,  999.0,  999.0,  999.0,  999.0,  999.0,  999.0,  999.0,  999.0,  999.0,  999.0,  999.0,  999.0,  999.0,  999.0,  999.0,  999.0,  999.0,  999.0,  999.0,  999.0,  999.0,  999.0,  999.0,  999.0,  999.0,  999.0
2000/11/28 22:20,  999.0,  999.0,    0.3,    0.2,    0.7,  999.0,  999.0,   -0.9,  999.0,   20.6,  999.0,   20.3,   21.4,  999.0,   20.6,  999.0,  999.0,  999.0,  999.0,  999.0,   17.4,   16.8,   16.1,  999.0,   16.0,   14.7,  999.0,  999.0,   13.3,   12.5,  999.0,   11.8,  999.0,  999.0,  999.0,   10.0,    9.7,  999.0,   10.0,    8.2,    8.3,  999.0,  999.0,    6.2,  999.0,  999.0,  999.0,  999.0,    4.9,  999.0,  999.0,    2.7,  999.0,    1.6,    1.4,  999.0,  999.0,  999.0
2000/11/28 22:30,  999.0,  999.0,  999.0,  999.0,   21.6,  999.0,   20.4,   18.7,   18.7,   18.3,   14.0,   15.4,   14.5,   11.4,   11.7,   11.4,   10.0,    9.5,    8.0,    7.7,    6.5,    4.3,    4.9,    3.5,    2.2,    1.7,    0.5,    1.0,    0.7,    0.6,    0.5,    0.4,    0.8,    0.7,    0.8,    0.5,  999.0,    0.8,    0.5,    1.0,    0.6,    0.1,    1.2,    0.6,    0.4,    1.1,    1.1,    0.7,    1.0,  999.0,    0.6,  999.0,    0.7,    0.9,    0.2,    0.6,    0.5,    1.2
2000/11/28 22:40,  999.0,    1.5,    0.5,   11.8,   11.0,    9.7,   15.8,    9.7,   17.7,  999.0,   18.9,   20.5,   20.8,   21.0,   17.3,  999.0,   16.3,    6.2,   11.2,   10.7,   10.7,   14.5,    1.3,    6.9,   20.7,    9.0,    8.5,    8.6,    2.9,    8.1,    7.3,    7.0,    0.3,   10.1,    0.4,   10.4,    7.9,    1.1,   20.7,   20.6,   10.4,   10.4,  999.0,   10.8,    7.5,  999.0,    7.0,    0.5,    7.0,   10.0,    7.6,  999.0,    0.7,    0.7,    0.2,    0.5,    1.0,    0.6
2000/11/28 22:50,  999.0,  999.0,  999.0,   21.2,   21.3,   21.4,  999.0,  999.0,   22.3,   21.2,   21.2,   21.0,   20.4,   18.3,   21.4,   20.1,   16.1,   11.4,   10.3,    7.8,    5.2,    0.9,    2.6,    1.9,  999.0,    0.9,    2.9,    0.7,    0.6,    0.9,    1.0,    0.8,    0.5,    0.9,    1.0,    0.7,    0.6,    0.6,    0.2,    0.9,    0.6,    0.4,    0.4,  999.0,    0.6,    0.3,    0.5,    0.5,   -0.3,    0.5,    0.5,    0.8,    0.6,    0.5,    0.8,    0.8,    0.5,    0.1
2000/11/28 23:00,  999.0,  999.0,  999.0,  999.0,  999.0,  999.0,  999.0,  999.0,   15.6,   18.4,   17.4,   17.7,   14.7,   12.4,    8.5,  999.0,  999.0,  999.0,  999.0,  999.0,  999.0,  999.0,   36.0,   -4.8,   12.7,   16.6,   14.2,   14.5,   15.1,   14.9,   20.6,   21.7,   21.7,   22.7,   21.5,   19.8,   18.9,    9.0,   10.3,  999.0,  999.0,  999.0,  999.0,   -0.0,  999.0,  999.0,  999.0,  999.0,  999.0,  999.0,  999.0,  999.0,  999.0,  999.0,  999.0,  999.0,  999.0,  999.0
2000/11/28 23:10,  999.0,  999.0,    0.4,  999.0,  999.0,   16.8,   18.1,   17.1,   16.9,   17.5,   18.2,   18.9,   18.8,   17.3,  999.0,  999.0,  999.0,  999.0,  999.0,  999.0,  999.0,  999.0,  999.0,  999.0,  999.0,  999.0,  999.0,  999.0,  999.0,  999.0,  999.0,  999.0,  999.0,  999.0,  999.0,  999.0,  999.0,  999.0,  999.0,  999.0,  999.0,  999.0,  999.0,  999.0,  999.0,  999.0,  999.0,  999.0,  999.0,  999.0,  999.0,  999.0,  999.0,  999.0,  999.0,  999.0,  999.0,  999.0
2000/11/28 23:20,  999.0,    0.5,    0.2,    0.4,    0.5,    0.2,   -0.2,   10.3,   18.9,   20.0,  999.0,  999.0,   21.5,  999.0,  999.0,  999.0,   20.7,  999.0,  999.0,   16.3,  999.0,  999.0,  999.0,  999.0,  999.0,   14.6,  999.0,  999.0,  999.0,  999.0,  999.0,  999.0,  999.0,  999.0,  999.0,  999.0,  999.0,  999.0,  999.0,  999.0,    0.8,  999.0,    0.9,  999.0,  999.0,    0.5,    1.6,    3.2,    0.5,    1.1,  999.0,    0.4,   -0.1,    0.3,    1.1,    1.3,  999.0,    0.6
2000/11/28 23:30,  999.0,  999.0,  999.0,  999.0,    8.6,   17.1,   21.2,   21.5,   21.5,   21.2,   21.4,   20.2,   19.8,  999.0,  999.0,   21.5,   17.5,   20.3,    6.3,   12.4,   14.4,   10.3,   13.3,   12.9,   17.8,    9.6,   11.3,  999.0,  999.0,  999.0,  999.0,  999.0,   10.3,  999.0,  999.0,  999.0,  999.0,    2.8,  999.0,    4.4,    3.2,    3.7,    2.1,    0.5,    1.0,    0.8,    1.3,    0.7,    1.1,    1.4,    0.8,    0.9,   11.4,   14.9,    0.8,   21.3,   16.2,    7.8
2000/11/28 23:40,  999.0,    0.7,  999.0,   -0.1,  999.0,    0.2,    2.7,  999.0,  999.0,   21.5,   21.0,   21.1,   21.1,  999.0,   19.1,   20.5,   17.6,   19.2,   19.0,   20.3,   19.4,   17.0,   15.2,   17.3,   20.7,  999.0,    9.1,   17.5,   15.9,    6.2,    6.5,    0.5,    5.0,    7.6,    3.1,  999.0,  999.0,   14.7,    0.4,    6.6,    2.3,    0.6,  999.0,  999.0,    0.6,    0.7,    0.6,    0.5,    1.0,    0.6,    1.2,  999.0,   12.3,   22.9,   41.3,   41.7,    1.3,   20.9
2000/11/28 23:50,  999.0,    0.6,    0.6,  999.0,  999.0,  999.0,  999.0,  999.0,   21.3,   21.6,   20.7,   21.1,   21.0,   20.6,   21.0,  999.0,   19.5,   19.5,   20.4,  999.0,   21.2,   21.4,   20.8,   22.3,   24.6,   23.1,   26.4,   24.6,   28.8,   20.8,   20.7,   33.4,   34.4,   20.8,   37.2,  999.0,  999.0,   40.9,   41.5,  999.0,   40.3,  999.0,   37.9,   37.0,  999.0,   34.5,  999.0,   32.5,  999.0,  999.0,  999.0,  999.0,  999.0,  999.0,  999.0,  999.0,  999.0,  999.0
